[[{"header":{"parameterUnit":"m.s-1","parameterCategory":1,"la1":30.6,"la2":29.2853,"lo1":-89.7004,"lo2":-87.6739,"dy":0.0162,"dx":0.0183,"nx":112,"ny":82,"refTime":"2026-03-15T00:00:00:Z","depth":0,"parameterNumber":2,"parameterNumberName":"U-component_of_WINDS"},"data":[0.0,0.0,0.0,0.0,0.0,0.0,0.0,0.0,0.0,0.0,0.0,0.0,0.0,0.0,0.0,0.0,0.0,0.0,0.0,0.0,0.0,0.0,0.0,0.0,0.0,0.0,0.0,0.0,0.0,0.0,0.0,0.0,0.0,0.0,0.0,0.0,0.0,0.0,0.0,0.0,0.0,0.0,0.0,0.0,0.0,0.0,0.0,0.0,0.0,0.0,0.0,0.0,0.0,0.0,0.0,0.0,0.0,0.0,0.0,0.0,0.0,0.0,0.0,0.0,0.0,0.0,0.0,0.0,0.0,0.0,0.0,0.0,0.0,0.0,0.0,0.0,0.0,0.0,0.0,0.0,0.0,0.0,0.0,0.0,0.0,0.0,0.0,0.0,0.0,0.0,0.0,3.5239,3.9826,4.2546,4.2426,4.1374,3.8261,3.2546,0.0,0.0,0.0,0.0,0.0,0.0,0.0,0.0,0.0,0.0,0.0,0.0,0.0,0.0,0.0,0.0,0.0,0.0,0.0,0.0,0.0,0.0,0.0,0.0,0.0,0.0,0.0,0.0,0.0,0.0,0.0,0.0,0.0,0.0,0.0,0.0,0.0,0.0,0.0,0.0,0.0,0.0,0.0,0.0,0.0,0.0,0.0,0.0,0.0,0.0,0.0,0.0,0.0,0.0,0.0,0.0,0.0,0.0,0.0,0.0,0.0,0.0,0.0,0.0,0.0,0.0,0.0,0.0,0.0,0.0,0.0,0.0,0.0,0.0,0.0,0.0,0.0,0.0,0.0,0.0,0.0,0.0,0.0,0.0,0.0,0.0,0.0,0.0,0.0,0.0,0.0,0.0,0.0,0.0,0.0,0.0,0.0,0.0,0.0,0.0,0.0,0.0,0.0,0.0,3.24,4.0212,4.3067,4.4119,4.3355,4.1132,3.7857,3.3295,0.0,0.0,0.0,0.0,0.0,0.0,0.0,0.0,0.0,0.0,0.0,0.0,0.0,0.0,0.0,0.0,0.0,0.0,0.0,0.0,0.0,0.0,0.0,0.0,0.0,0.0,0.0,0.0,0.0,0.0,0.0,0.0,0.0,0.0,0.0,0.0,0.0,0.0,0.0,0.0,0.0,0.0,0.0,0.0,0.0,0.0,0.0,0.0,0.0,0.0,0.0,0.0,0.0,0.0,0.0,0.0,0.0,0.0,0.0,0.0,0.0,0.0,0.0,0.0,0.0,0.0,0.0,0.0,0.0,0.0,0.0,0.0,0.0,0.0,0.0,0.0,0.0,0.0,0.0,0.0,0.0,0.0,0.0,0.0,0.0,0.0,0.0,0.0,0.0,0.0,0.0,0.0,0.0,0.0,0.0,0.0,0.0,0.0,0.0,0.0,0.0,0.0,0.0,3.1348,3.5273,4.1533,4.3757,4.4413,4.353,4.1506,3.8464,3.4165,3.0632,0.0,0.0,0.0,0.0,0.0,0.0,0.0,0.0,0.0,0.0,0.0,0.0,0.0,0.0,0.0,0.0,0.0,0.0,0.0,0.0,0.0,0.0,0.0,0.0,0.0,0.0,0.0,0.0,0.0,0.0,0.0,0.0,0.0,0.0,0.0,0.0,0.0,0.0,0.0,0.0,0.0,0.0,0.0,0.0,0.0,0.0,0.0,0.0,0.0,0.0,0.0,0.0,0.0,0.0,0.0,0.0,0.0,0.0,0.0,0.0,0.0,0.0,0.0,0.0,0.0,0.0,0.0,0.0,0.0,0.0,0.0,0.0,0.0,0.0,0.0,0.0,0.0,0.0,0.0,0.0,0.0,0.0,0.0,0.0,0.0,0.0,0.0,0.0,0.0,0.0,0.0,0.0,0.0,0.0,0.0,0.0,0.0,0.0,0.0,0.0,0.0,0.0,3.5155,3.8225,4.2074,4.3861,4.4434,4.3475,4.1298,3.8332,3.4457,2.9986,0.0,0.0,0.0,0.0,0.0,0.0,0.0,0.0,0.0,0.0,0.0,0.0,0.0,0.0,0.0,0.0,0.0,0.0,0.0,0.0,0.0,0.0,0.0,0.0,0.0,0.0,0.0,0.0,0.0,0.0,0.0,0.0,0.0,0.0,0.0,0.0,0.0,0.0,0.0,0.0,0.0,0.0,0.0,0.0,0.0,0.0,0.0,0.0,0.0,0.0,0.0,0.0,0.0,0.0,0.0,0.0,0.0,0.0,0.0,0.0,0.0,0.0,0.0,0.0,0.0,0.0,0.0,0.0,0.0,0.0,0.0,0.0,0.0,0.0,0.0,0.0,0.0,0.0,0.0,0.0,0.0,0.0,0.0,0.0,0.0,0.0,0.0,0.0,0.0,0.0,0.0,0.0,0.0,0.0,0.0,0.0,0.0,0.0,0.0,0.0,0.0,0.0,3.6398,4.0439,4.3119,4.4248,4.4434,4.3475,3.9655,3.6142,3.3474,2.8489,0.0,0.0,0.0,0.0,0.0,0.0,0.0,0.0,0.0,0.0,0.0,0.0,0.0,0.0,0.0,0.0,0.0,0.0,0.0,0.0,0.0,0.0,0.0,0.0,0.0,0.0,0.0,0.0,0.0,0.0,0.0,0.0,0.0,0.0,0.0,0.0,0.0,0.0,0.0,0.0,0.0,0.0,0.0,0.0,0.0,0.0,0.0,0.0,0.0,0.0,0.0,0.0,0.0,0.0,0.0,0.0,0.0,0.0,0.0,0.0,0.0,0.0,0.0,0.0,0.0,0.0,0.0,0.0,0.0,0.0,0.0,0.0,0.0,0.0,0.0,0.0,0.0,0.0,0.0,0.0,0.0,0.0,0.0,0.0,0.0,0.0,0.0,0.0,0.0,0.0,0.0,0.0,0.0,0.0,0.0,0.0,0.0,0.0,0.0,0.0,0.0,0.0,3.6362,4.0053,0.0,4.4189,4.4274,4.3483,4.0346,3.7168,3.4138,0.0,0.0,0.0,0.0,0.0,0.0,0.0,0.0,0.0,0.0,0.0,0.0,0.0,0.0,0.0,0.0,0.0,0.0,0.0,0.0,0.0,0.0,0.0,0.0,0.0,0.0,0.0,0.0,0.0,0.0,0.0,0.0,0.0,0.0,0.0,0.0,0.0,0.0,0.0,0.0,0.0,0.0,0.0,0.0,0.0,0.0,0.0,0.0,0.0,0.0,0.0,0.0,0.0,0.0,0.0,0.0,0.0,0.0,0.0,0.0,0.0,0.0,0.0,0.0,0.0,0.0,0.0,0.0,0.0,0.0,0.0,0.0,0.0,0.0,0.0,0.0,0.0,0.0,0.0,0.0,0.0,0.0,0.0,0.0,0.0,0.0,0.0,0.0,0.0,0.0,0.0,0.0,0.0,0.0,0.0,0.0,0.0,0.0,0.0,0.0,0.0,0.0,3.2672,3.6752,4.0283,0.0,4.3896,4.3929,4.3383,4.0119,3.6787,3.3736,0.0,0.0,0.0,0.0,0.0,0.0,0.0,0.0,0.0,0.0,0.0,0.0,0.0,0.0,0.0,0.0,0.0,0.0,0.0,0.0,0.0,0.0,0.0,0.0,0.0,0.0,0.0,0.0,0.0,0.0,0.0,0.0,0.0,0.0,0.0,0.0,0.0,0.0,0.0,0.0,0.0,0.0,0.0,0.0,0.0,0.0,0.0,0.0,0.0,0.0,0.0,0.0,0.0,0.0,0.0,0.0,0.0,0.0,0.0,0.0,0.0,0.0,0.0,0.0,0.0,0.0,0.0,0.0,0.0,0.0,0.0,0.0,0.0,0.0,0.0,0.0,0.0,0.0,0.0,0.0,0.0,0.0,0.0,0.0,0.0,0.0,0.0,0.0,0.0,0.0,0.0,0.0,0.0,0.0,0.0,0.0,0.0,0.0,0.0,0.0,0.0,0.0,3.2749,3.7761,4.1556,4.3233,4.3391,4.3348,4.3215,3.8494,3.4447,0.0,0.0,0.0,0.0,0.0,0.0,0.0,0.0,0.0,0.0,0.0,0.0,0.0,0.0,0.0,0.0,0.0,0.0,0.0,0.0,0.0,0.0,0.0,0.0,0.0,0.0,0.0,0.0,0.0,0.0,0.0,0.0,0.0,0.0,0.0,0.0,0.0,0.0,0.0,0.0,0.0,0.0,0.0,0.0,0.0,0.0,0.0,0.0,0.0,0.0,0.0,0.0,0.0,0.0,0.0,0.0,0.0,0.0,0.0,0.0,0.0,0.0,0.0,0.0,0.0,0.0,0.0,0.0,0.0,0.0,0.0,0.0,0.0,0.0,0.0,0.0,0.0,0.0,0.0,0.0,0.0,0.0,0.0,0.0,0.0,0.0,0.0,0.0,0.0,0.0,0.0,0.0,0.0,0.0,0.0,0.0,0.0,0.0,0.0,0.0,0.0,0.0,0.0,3.2749,3.7761,4.1564,4.3301,4.3349,4.3264,4.3348,3.9553,3.5874,3.2813,0.0,0.0,0.0,0.0,0.0,0.0,0.0,0.0,0.0,0.0,0.0,0.0,0.0,0.0,0.0,0.0,0.0,0.0,0.0,0.0,0.0,0.0,0.0,0.0,0.0,0.0,0.0,0.0,0.0,0.0,0.0,0.0,0.0,0.0,0.0,0.0,0.0,0.0,0.0,0.0,0.0,0.0,0.0,0.0,0.0,0.0,0.0,0.0,0.0,0.0,0.0,0.0,0.0,0.0,0.0,0.0,0.0,0.0,0.0,0.0,0.0,0.0,0.0,0.0,0.0,0.0,0.0,0.0,0.0,0.0,0.0,0.0,0.0,0.0,0.0,0.0,0.0,0.0,0.0,0.0,0.0,0.0,0.0,0.0,0.0,0.0,0.0,0.0,0.0,0.0,0.0,0.0,0.0,0.0,0.0,0.0,0.0,0.0,0.0,0.0,0.0,0.0,3.271,3.7488,4.1212,4.3258,4.3045,4.2959,4.3295,4.0024,3.6547,3.3198,0.0,0.0,0.0,0.0,0.0,0.0,0.0,0.0,0.0,0.0,0.0,0.0,0.0,0.0,0.0,0.0,0.0,0.0,0.0,0.0,0.0,0.0,0.0,0.0,0.0,0.0,0.0,0.0,0.0,0.0,0.0,0.0,0.0,0.0,0.0,0.0,0.0,0.0,0.0,0.0,0.0,0.0,0.0,0.0,0.0,0.0,0.0,0.0,0.0,0.0,0.0,0.0,0.0,0.0,0.0,0.0,0.0,0.0,0.0,0.0,0.0,0.0,0.0,0.0,0.0,0.0,0.0,0.0,0.0,0.0,0.0,0.0,0.0,0.0,0.0,0.0,0.0,0.0,0.0,0.0,0.0,0.0,0.0,0.0,0.0,0.0,0.0,0.0,0.0,0.0,0.0,0.0,0.0,0.0,0.0,0.0,0.0,0.0,0.0,0.0,0.0,0.0,3.2633,3.7058,4.0655,4.3104,4.2676,4.2436,4.3115,4.003,3.6683,3.3412,0.0,0.0,0.0,0.0,0.0,0.0,0.0,0.0,0.0,0.0,0.0,0.0,0.0,0.0,0.0,0.0,0.0,0.0,0.0,0.0,0.0,0.0,0.0,0.0,0.0,0.0,0.0,0.0,0.0,0.0,0.0,0.0,0.0,0.0,0.0,0.0,0.0,0.0,0.0,0.0,0.0,0.0,0.0,0.0,0.0,0.0,0.0,0.0,0.0,0.0,0.0,0.0,0.0,0.0,0.0,0.0,0.0,0.0,0.0,0.0,1.6898,0.0,0.0,0.0,0.0,0.0,0.0,0.0,0.0,0.0,0.0,0.0,0.0,0.0,0.0,0.0,0.0,0.0,0.0,0.0,0.0,0.0,0.0,0.0,0.0,0.0,0.0,0.0,0.0,0.0,0.0,0.0,0.0,0.0,0.0,0.0,0.0,0.0,0.0,0.0,0.0,0.0,3.271,3.7005,4.0535,4.2965,4.248,4.2258,4.2907,3.9885,3.7061,3.4959,0.0,0.0,0.0,0.0,0.0,0.0,0.0,0.0,0.0,0.0,0.0,0.0,0.0,0.0,0.0,0.0,0.0,0.0,0.0,0.0,0.0,0.0,0.0,0.0,0.0,0.0,0.0,0.0,0.0,0.0,0.0,0.0,0.0,0.0,0.0,0.0,0.0,0.0,0.0,0.0,0.0,0.0,0.0,0.0,0.0,0.0,0.0,0.0,0.0,0.0,0.0,0.0,0.0,0.0,0.0,0.0,0.0,0.0,0.0,0.0,0.0,1.9548,0.0,0.0,0.0,0.0,0.0,0.0,0.0,0.0,0.0,0.0,0.0,0.0,0.0,0.0,0.0,0.0,0.0,0.0,0.0,0.0,0.0,0.0,0.0,0.0,0.0,0.0,0.0,0.0,0.0,0.0,0.0,0.0,0.0,0.0,0.0,0.0,0.0,0.0,0.0,0.0,3.3333,3.7213,4.0339,4.2401,4.1742,4.1486,4.2202,3.9912,3.7705,3.5986,3.2236,0.0,0.0,0.0,0.0,0.0,0.0,0.0,0.0,0.0,0.0,0.0,0.0,0.0,0.0,0.0,0.0,0.0,0.0,0.0,0.0,0.0,0.0,0.0,0.0,0.0,0.0,0.0,0.0,0.0,0.0,0.0,0.0,0.0,0.0,0.0,0.0,0.0,0.0,0.0,0.0,0.0,0.0,0.0,0.0,0.0,0.0,0.0,0.0,0.0,0.0,0.0,0.0,0.0,3.2876,3.1259,2.9708,2.7976,2.7464,2.7773,2.4116,2.3499,2.4978,0.0,0.0,0.0,0.0,0.0,0.0,0.0,0.0,0.0,0.0,0.0,0.0,0.0,0.0,0.0,0.0,0.0,0.0,0.0,0.0,0.0,0.0,0.0,0.0,0.0,3.0764,3.1038,0.0,0.0,0.0,0.0,0.0,0.0,0.0,0.0,0.0,0.0,0.0,0.0,3.4171,3.7484,4.0092,4.1738,4.0987,4.0696,4.1474,3.9965,3.8372,3.6952,3.4313,3.1622,0.0,0.0,0.0,0.0,0.0,0.0,0.0,0.0,0.0,0.0,0.0,0.0,0.0,0.0,0.0,0.0,0.0,0.0,0.0,0.0,0.0,0.0,0.0,0.0,0.0,0.0,0.0,0.0,0.0,0.0,0.0,0.0,1.6398,1.7965,0.0,0.0,0.0,0.0,0.0,0.0,0.0,0.0,0.0,0.0,0.0,0.0,0.0,2.0919,1.9381,2.6656,3.1772,3.4588,3.4301,3.2618,2.9692,2.9553,3.0971,3.3528,3.2924,0.0,2.5212,2.7606,0.0,0.0,0.0,0.0,0.0,0.0,0.0,0.0,0.0,0.0,0.0,0.0,0.0,0.0,0.0,0.0,0.0,0.0,0.0,0.0,0.0,0.0,3.3334,3.2749,3.3411,3.3761,0.0,2.9639,2.7073,2.5288,2.4394,0.0,0.0,0.0,0.0,0.0,0.0,0.0,3.5023,3.7772,3.9999,4.1477,4.0798,4.0506,4.1171,3.9779,3.8699,3.8421,3.5417,3.3436,3.3032,2.8642,0.0,0.0,0.0,0.0,0.0,0.0,0.0,0.0,0.0,0.0,0.0,0.0,0.0,0.0,0.0,0.0,0.0,0.0,0.0,0.0,0.0,0.0,0.0,0.0,0.0,0.0,0.0,0.0,0.0,1.6311,1.7415,1.9063,1.8951,1.8768,0.0,0.0,0.0,0.0,0.0,0.0,0.0,0.0,0.0,2.5154,2.5998,2.7027,2.8173,3.1049,3.3161,3.4588,3.4588,3.3837,3.245,3.2492,3.3275,3.4588,3.4588,3.4144,3.3186,3.0732,2.884,2.7261,0.0,0.0,0.0,0.0,2.4392,2.8423,2.9694,2.9373,0.0,2.8894,0.0,0.0,0.0,0.0,0.0,0.0,0.0,0.0,0.0,0.0,3.5391,3.6015,3.714,3.7723,3.6442,3.5351,3.3522,0.0,2.9289,2.8358,2.5174,0.0,0.0,0.0,0.0,0.0,3.6646,3.8697,4.0136,4.0735,4.0346,4.0102,4.0346,3.9726,3.9083,3.8574,3.6795,3.5579,3.5175,3.1688,2.9217,0.0,0.0,0.0,0.0,0.0,0.0,0.0,0.0,0.0,0.0,0.0,0.0,0.0,0.0,0.0,0.0,0.0,0.0,0.0,0.0,0.0,0.0,0.0,0.0,0.0,0.0,0.0,0.0,1.8001,1.8889,2.0538,2.0949,2.0985,0.0,0.0,0.0,0.0,0.0,0.0,2.5053,2.7227,2.884,2.9671,3.0082,3.211,3.583,3.5929,3.5959,3.5959,3.5959,3.5959,3.5959,3.5959,3.5926,3.5868,3.5868,3.7377,3.9467,3.4403,3.1753,3.0833,2.9591,2.6848,2.3885,2.6383,2.9113,3.1814,3.353,3.3405,3.2503,3.2628,0.0,3.1607,2.9987,0.0,0.0,0.0,0.0,3.2011,3.4771,3.5975,3.6788,3.8075,3.951,4.0208,3.8735,3.9238,3.8691,0.0,3.3836,3.306,2.9216,0.0,0.0,0.0,0.0,3.5864,3.8102,3.9692,4.0584,4.0456,4.0303,4.0174,4.003,3.9818,3.9406,3.8744,3.7772,3.7095,3.679,3.4353,3.2435,3.1179,0.0,0.0,0.0,0.0,0.0,0.0,0.0,0.0,0.0,0.0,0.0,0.0,0.0,0.0,0.0,0.0,0.0,0.0,0.0,0.0,0.0,0.0,0.0,0.0,0.0,0.0,0.0,0.0,0.0,2.3104,2.3996,0.0,0.0,0.0,0.0,2.4553,2.6725,2.8453,2.9331,3.0943,3.2595,3.4213,3.2783,3.4363,3.9289,3.9551,3.9618,3.9618,3.9618,3.9618,3.9618,3.9618,3.9539,3.9367,3.9367,3.9509,3.9693,3.9464,3.7387,3.4363,3.425,3.4062,3.3875,3.4028,3.5232,3.6749,3.6987,3.6456,3.5801,3.6715,3.5519,3.3798,3.4026,3.3552,0.0,0.0,3.6071,3.6945,3.7958,3.823,3.8308,3.8386,3.9082,3.9508,3.8619,3.9705,4.0053,0.0,3.6867,3.6051,3.3448,0.0,3.4189,3.4228,3.5708,3.7351,3.893,4.0492,4.1371,4.1187,4.1093,4.0998,4.0939,4.0168,3.9656,3.9561,3.8018,3.7443,3.8244,3.5957,3.4384,3.3738,3.0455,0.0,0.0,0.0,0.0,0.0,0.0,0.0,0.0,0.0,0.0,0.0,0.0,0.0,0.0,0.0,0.0,0.0,0.0,0.0,0.0,0.0,0.0,0.0,0.0,0.0,0.0,0.0,0.0,2.6318,2.6914,0.0,0.0,2.8314,2.8692,2.9401,3.0262,3.1161,3.2027,3.3644,3.4808,3.5412,3.5704,3.6535,3.7974,3.9113,3.9719,3.9719,3.9719,3.9719,3.9797,4.2074,4.2988,4.269,4.1598,4.1396,4.1836,4.1879,4.032,3.7885,3.7813,3.7824,3.7824,3.7824,3.8199,3.8619,3.7905,3.7471,3.7188,3.7275,3.6855,3.6332,3.6545,3.6524,3.6576,3.7225,3.7639,3.8206,3.9622,4.0015,4.0287,4.1412,4.1916,4.207,4.1761,4.2149,4.2304,4.1371,3.9895,3.8148,3.609,3.6442,3.677,3.6074,3.783,3.9551,4.0481,4.1469,4.2058,4.1926,4.1835,4.1571,4.0985,4.0656,3.9983,3.8832,3.8188,3.8009,3.8327,3.6526,3.5517,3.5524,3.2293,2.9065,0.0,0.0,0.0,0.0,0.0,0.0,0.0,0.0,0.0,0.0,0.0,0.0,0.0,0.0,0.0,0.0,0.0,0.0,0.0,0.0,0.0,0.0,0.0,0.0,0.0,0.0,2.5996,2.8149,2.9387,3.0405,3.1234,3.1614,3.222,3.3306,3.3647,3.4022,3.462,3.5969,3.6833,3.7139,3.8372,3.8826,3.8494,3.9771,4.0707,4.1232,4.1232,4.1232,4.1317,4.368,4.4699,4.4483,4.297,4.2457,4.2666,4.2666,4.1817,4.0474,4.0243,4.0622,4.1195,4.0631,4.0522,4.0597,3.9608,3.9283,3.9253,3.8747,3.8694,3.8825,3.899,3.9219,3.9485,3.9821,3.9987,4.0273,4.1428,4.1746,4.2059,4.3233,4.3508,4.3508,4.3508,4.3508,4.3504,4.3456,4.2102,4.0514,3.907,3.9518,3.9716,3.8754,4.0137,4.1424,4.1815,4.2401,4.2756,4.2664,4.2593,4.2234,4.1362,4.1023,4.0256,3.8829,3.8228,3.8034,3.8294,3.6755,3.6066,3.6411,3.3306,3.0225,2.7272,0.0,0.0,0.0,0.0,0.0,0.0,0.0,0.0,0.0,0.0,0.0,0.0,0.0,0.0,0.0,0.0,0.0,0.0,0.0,0.0,0.0,0.0,0.0,2.3665,2.6463,2.8566,2.8604,3.1456,3.3153,3.2367,3.4508,3.5935,3.5969,3.6691,3.7145,3.7185,3.7925,3.8791,3.9664,4.0672,4.1232,4.1232,4.1782,4.2868,4.4485,4.4485,4.4485,4.4485,4.4489,4.4568,4.4617,4.3471,4.2615,4.2079,4.2079,4.2079,4.2049,4.1531,4.2606,4.4223,4.2605,4.2386,4.2806,4.2195,4.2054,4.1986,4.135,4.118,4.128,4.1451,4.1658,4.1999,4.2851,4.3232,4.3382,4.3415,4.3423,4.347,4.3578,4.3584,4.3584,4.3585,4.3584,4.3575,4.3507,4.3526,4.3305,4.2386,4.2829,4.3024,4.2246,4.2545,0.0,4.2849,4.3248,4.3508,4.3442,4.3372,4.2994,4.212,4.1301,4.0481,3.963,3.8049,3.748,3.8219,3.6761,3.6124,3.6519,3.3576,3.0801,2.8238,0.0,0.0,0.0,0.0,0.0,0.0,0.0,0.0,0.0,0.0,0.0,0.0,0.0,0.0,0.0,0.0,0.0,0.0,0.0,0.0,0.0,0.0,2.7064,2.7064,2.8394,3.0239,3.2593,3.3722,3.4883,3.6457,3.6688,3.7026,3.7584,3.7847,3.8269,3.8876,3.9696,4.0475,4.1298,4.1632,4.1973,4.2434,4.2577,4.3287,4.4485,4.4485,4.4485,4.4489,4.4568,4.4585,4.4548,4.4264,4.4011,4.3806,4.3806,4.3806,4.3697,4.2331,4.2174,4.2643,4.2151,4.2117,4.224,4.2104,4.2063,4.2013,4.1883,4.1911,4.2015,4.2115,4.2393,4.2725,4.2949,4.3157,4.3472,4.4162,4.4342,4.4517,4.5149,4.5307,4.5312,4.5295,4.5322,4.5304,4.5296,4.5301,4.483,4.332,4.3179,4.3158,4.2855,4.3383,0.0,4.3637,4.4132,4.4467,4.4356,4.4226,4.3875,4.3067,4.2194,4.0832,3.8866,3.8255,3.7812,3.7442,3.7086,3.6814,3.6572,3.4698,3.2805,0.0,0.0,0.0,0.0,0.0,0.0,0.0,0.0,0.0,0.0,0.0,0.0,0.0,0.0,0.0,0.0,0.0,0.0,0.0,0.0,0.0,0.0,2.7711,2.9432,3.0783,3.1429,3.2448,3.4363,3.5524,3.6723,3.8144,3.8191,3.8497,3.9276,3.9348,3.9727,4.0556,4.1038,4.1673,4.2537,4.2533,4.2874,4.355,4.3554,4.4042,4.5014,4.5134,4.5209,4.5213,4.5724,4.5901,0.0,4.5699,4.5579,4.554,4.554,4.5315,0.0,0.0,0.0,0.0,0.0,4.3055,4.3062,4.3106,4.3092,4.3062,4.3106,4.3186,4.3268,4.3296,4.3577,4.3891,4.3884,4.4078,4.4416,4.4957,4.517,4.5337,4.5856,4.5987,4.6001,4.6018,4.6008,4.5993,4.5978,4.5977,0.0,4.4589,4.4338,4.4292,4.4235,4.4459,4.4609,4.4518,4.4671,4.4792,4.4676,4.4554,4.4206,4.3437,4.2894,0.0,0.0,0.0,3.8342,3.7182,3.7363,0.0,0.0,0.0,0.0,0.0,0.0,0.0,0.0,3.0498,3.0263,0.0,0.0,0.0,0.0,0.0,0.0,0.0,0.0,0.0,0.0,0.0,0.0,0.0,0.0,0.0,0.0,3.0082,3.1286,3.4183,3.4862,3.5047,3.5001,3.6948,3.8369,3.856,3.9283,4.0078,4.0904,4.0932,4.1301,4.2093,0.0,0.0,0.0,0.0,4.382,4.4639,4.4639,4.5052,4.5848,4.6155,4.6271,4.6309,4.7278,4.7725,4.7687,4.7196,4.7004,4.7004,4.7004,4.6557,4.5772,4.4864,4.4636,4.4789,4.4684,4.4718,4.4789,4.4796,0.0,0.0,4.4786,4.4831,4.4886,4.4886,4.5092,4.5346,4.5346,4.5592,4.5868,4.5933,4.6073,4.6166,4.6209,4.6241,4.6262,4.6262,4.6298,4.6247,4.618,4.6173,4.6155,4.6086,4.5924,4.579,4.5782,4.5548,4.5344,4.5294,4.5118,4.4932,4.4759,0.0,0.0,4.3646,4.3559,4.2776,4.1057,4.0246,3.9162,3.7716,3.8037,3.8219,3.8159,3.8525,3.8663,3.8504,3.8622,3.8735,3.8696,3.3956,3.2945,0.0,0.0,0.0,0.0,0.0,0.0,0.0,0.0,0.0,0.0,0.0,0.0,0.0,0.0,0.0,3.0445,3.2367,3.389,3.4577,3.6394,3.7654,3.7593,3.7997,3.8823,4.0178,4.0478,4.0917,4.1791,4.1815,4.2187,4.308,4.3065,0.0,4.4226,4.4264,4.4639,4.5472,4.5472,4.5882,4.6745,0.0,0.0,4.6861,4.7045,4.7158,4.7158,4.7045,4.7004,4.7004,4.7004,4.6892,4.6595,4.509,4.5315,4.6448,4.5802,4.5973,4.6527,4.6585,4.6567,4.6516,4.6516,4.6527,4.6538,4.6538,4.6677,0.0,4.6866,4.7111,4.7394,4.7582,4.7697,4.7791,4.7973,4.8,4.8005,4.8005,4.7984,4.7924,4.7917,4.7915,4.7902,4.7898,4.6675,4.569,4.5663,4.6034,4.6036,4.5257,4.6168,4.6555,4.5646,4.615,4.6204,4.5372,4.4746,4.3654,4.1945,4.1102,4.0587,4.0441,4.1277,4.1485,4.1032,4.1171,4.0984,4.038,4.0395,4.0792,4.1416,3.9043,3.8225,0.0,0.0,0.0,0.0,0.0,0.0,0.0,0.0,0.0,0.0,0.0,2.7448,0.0,0.0,3.1952,3.3188,3.4422,3.555,3.6443,3.7615,3.8395,3.8357,3.9097,3.9908,4.0707,4.1151,4.1764,4.263,4.2673,4.3045,4.3909,4.3912,4.4267,4.5093,4.5093,4.5506,4.6332,4.6332,4.6783,4.7612,4.7612,4.7838,4.8247,4.8247,4.8247,4.8247,4.8247,4.8247,4.8209,4.7796,4.7875,4.8097,4.6404,4.6253,4.6933,4.6563,4.6665,4.7012,4.7048,4.7037,4.7004,4.7004,4.7004,4.7004,4.7004,4.7097,4.7202,4.7202,4.7384,4.7638,4.7755,4.7892,4.8032,4.8241,4.833,4.8362,4.8421,4.8419,4.8407,4.8407,4.8393,4.8413,4.8395,4.7573,4.6872,4.6851,4.7048,4.6971,4.6376,4.6853,4.7051,4.6498,4.6789,4.6835,4.6424,4.5634,4.4828,4.4,4.2807,4.2171,4.2299,4.2549,4.2577,4.2246,4.2563,4.2506,4.2093,4.217,4.285,4.4097,4.324,4.2382,0.0,0.0,0.0,0.0,0.0,0.0,0.0,0.0,2.4824,2.613,2.8537,3.0678,3.1461,3.285,3.4395,3.5917,3.6267,3.6906,3.8461,3.8649,3.8644,3.8632,3.996,4.0904,4.1004,4.1782,4.2615,4.3502,4.353,4.3823,4.4469,4.4646,4.5018,4.5663,4.5848,4.6373,4.7233,4.7233,4.7646,4.8442,4.8442,4.8818,4.949,4.949,4.949,4.949,4.949,4.949,4.9452,4.8739,4.8852,4.9377,4.8022,4.7492,4.7458,4.7308,4.7346,4.7492,4.7492,4.7492,4.7492,4.7492,4.7492,4.7492,4.7492,4.7537,4.7588,4.7588,4.773,4.79,4.8004,4.8184,4.8422,4.8627,4.8698,4.8788,4.888,4.8898,4.8898,4.8898,4.8874,4.8885,4.8862,4.8728,4.849,4.8114,4.8013,4.7875,4.751,4.7535,4.7531,4.7328,4.7417,4.7428,4.7255,4.6456,4.6,4.6087,4.4784,4.4072,4.4166,4.3893,4.3702,4.3733,4.4168,4.4392,4.4347,4.445,4.5181,4.6504,4.6504,4.5765,2.2064,2.0847,0.0,2.1515,2.1951,2.3166,0.0,0.0,2.8714,3.1797,3.2738,3.3228,3.4022,3.4958,3.5957,3.6894,3.7656,3.8467,3.9502,3.9606,3.9539,3.9533,4.03,4.1082,4.1817,4.2653,4.3509,4.4394,4.4414,4.4441,4.4582,4.5203,4.5622,4.5697,4.6445,4.7233,4.8067,4.8067,4.8514,4.9336,4.9336,4.9415,4.949,4.949,4.949,4.949,4.949,4.949,4.9486,4.9373,4.9415,4.949,4.9302,4.9227,4.9114,4.8367,4.8551,4.9227,4.9227,4.9227,4.9227,4.9227,4.9227,4.9227,4.9227,4.9231,4.9239,4.9239,4.9437,4.9699,4.9904,5.0169,5.0426,5.0641,5.0673,5.0669,5.0641,5.0635,5.0635,5.0635,5.0633,5.0593,5.0474,5.0438,4.9846,4.8173,4.8361,4.8337,4.7366,4.8449,4.8991,4.8164,4.8746,4.8916,4.8238,4.7349,4.6916,4.7058,4.681,4.6753,4.6922,4.7207,4.7384,4.7475,4.7853,4.8011,4.8006,4.8013,4.8135,4.8329,4.8329,4.8212,2.3817,0.0,0.0,0.0,2.5168,2.6652,2.9697,3.0858,3.1982,3.4352,3.5594,3.6195,3.609,3.7145,3.8018,0.0,3.8568,3.9278,3.9681,4.0125,4.022,3.9753,4.0776,4.1632,4.1967,4.2803,4.3646,4.4493,4.4503,4.4728,4.5214,4.5527,4.6148,4.7128,4.75,4.8101,4.8964,4.8968,4.9152,4.949,4.949,4.949,4.949,4.949,4.949,4.949,4.949,4.949,4.949,4.949,4.949,4.949,4.949,4.949,4.9448,4.9077,4.9189,4.949,4.949,4.949,4.949,4.949,4.949,4.949,4.949,4.949,4.949,4.949,4.9608,4.9776,4.9902,5.0079,5.0227,5.0479,5.0525,5.0545,5.0608,5.0623,5.0623,5.0623,5.0623,5.0601,5.0537,5.0415,5.007,4.9302,4.9314,4.9237,4.8656,4.9149,4.9382,4.9006,4.9265,4.9351,4.901,4.8641,4.8461,4.8525,4.8051,4.7801,4.7902,4.7866,4.7883,4.7998,4.8385,4.8601,4.8601,4.8601,4.8873,4.934,4.934,4.9884,2.4921,0.0,0.0,2.6643,2.8056,2.9842,3.1534,3.3038,3.4577,3.6232,3.7324,3.7853,3.7518,3.8419,0.0,3.8737,3.9268,3.979,3.9982,4.0349,4.034,3.9729,4.0657,4.1448,4.1632,4.2653,4.3632,4.4448,4.4714,4.509,4.566,4.6152,4.694,4.8142,4.8442,4.8855,4.9486,4.949,4.949,4.949,4.949,4.949,4.949,4.949,4.949,4.949,4.949,4.949,4.949,4.949,4.949,4.949,4.949,4.949,4.949,4.949,4.949,4.949,4.949,4.949,4.949,4.949,4.949,4.949,4.949,4.949,4.949,4.949,4.9563,4.9658,4.9709,4.9821,4.9969,5.0131,5.0218,5.0215,5.0309,5.0334,5.0334,5.0334,5.0334,5.032,5.0269,5.0146,5.0028,4.9956,4.9865,4.9755,4.9619,4.9547,4.949,4.949,4.949,4.949,4.949,4.949,4.949,4.949,4.8927,4.86,4.8662,4.8556,4.8524,4.8606,4.906,4.929,4.9337,4.9337,4.9766,5.0584,5.0584,5.1361,0.0,0.0,2.7382,2.8199,3.0211,3.2445,3.41,3.5186,3.627,3.7884,3.7665,3.7367,3.8109,3.8297,3.8619,3.9512,3.9674,3.9979,4.0738,4.0207,3.9694,3.9602,3.963,3.9962,0.0,4.2321,4.3632,4.4448,4.5206,4.566,4.5697,4.7241,4.8142,4.8179,4.9002,4.949,4.949,4.949,4.949,4.949,4.949,4.949,4.949,4.949,4.949,4.949,4.949,4.949,4.949,4.949,4.949,4.949,4.949,4.949,4.949,4.949,4.949,4.949,4.949,4.949,4.949,4.949,4.949,4.949,4.949,4.949,4.949,4.949,4.9644,4.9797,4.98,5.0,5.0189,5.0198,5.0198,5.0201,5.0203,5.0206,5.0206,5.0206,5.0206,5.0147,4.9955,4.9916,4.9858,4.9648,4.9604,4.96,4.9589,4.9547,4.949,4.949,4.949,4.949,4.949,4.949,4.949,4.949,4.949,4.9525,4.9647,5.003,5.027,5.0428,5.083,5.1056,5.1123,5.1123,5.155,5.233,5.233,5.2797,0.0,0.0,2.9997,3.1398,3.2751,3.4323,3.6535,3.7283,3.7659,3.8182,3.8072,3.7812,3.7555,3.7925,3.8416,3.8703,3.9686,4.0513,4.0816,4.161,4.1726,4.0531,4.1431,0.0,0.0,0.0,0.0,4.3632,4.4946,4.596,4.652,4.7616,4.848,4.9039,4.934,4.949,4.949,4.949,4.949,4.949,4.949,4.949,4.949,4.949,4.949,4.949,4.949,4.949,4.949,4.949,4.949,4.949,4.949,4.949,4.949,4.949,4.949,4.949,4.949,4.949,4.949,4.949,4.949,4.949,4.949,4.949,4.949,4.949,4.9981,5.0443,5.0443,5.0972,5.1536,5.1536,5.1536,5.1536,5.1536,5.1082,5.0661,5.0661,5.0213,4.9859,4.9783,4.9733,4.9647,4.9559,4.9536,4.9536,4.9536,4.9509,4.949,4.949,4.9982,5.0095,4.9565,4.9982,5.0057,4.9524,4.949,4.954,4.9623,5.0046,5.0327,5.0422,5.1426,5.1969,5.2018,5.2563,5.2992,5.3264,5.3264,5.3729,0.0,3.0107,3.221,3.3864,3.5108,3.6275,3.7587,3.8072,3.8147,3.7546,3.7434,3.7171,3.6353,3.6613,3.7286,3.8144,3.9198,4.0212,4.111,4.2207,4.2493,4.1377,4.2527,0.0,0.0,0.0,0.0,4.3707,4.5261,4.6407,4.6967,4.8063,4.893,4.949,4.949,4.949,4.949,4.949,4.949,4.949,4.949,4.949,4.949,4.949,4.949,4.949,4.949,4.949,4.949,4.949,4.949,4.949,4.949,4.949,4.949,4.949,4.949,4.949,4.949,4.949,4.949,4.949,4.949,4.949,4.949,4.949,4.9565,4.9865,5.0318,5.0845,5.1108,5.1637,5.209,5.209,5.209,5.209,5.209,5.1634,5.1254,5.1254,5.0843,5.0474,5.0474,5.0436,5.042,5.0357,5.035,5.0237,4.9982,4.994,5.0057,5.0312,5.0804,5.0921,5.0387,5.0842,5.0921,5.0387,5.035,5.0377,5.0435,5.0932,5.1226,5.1246,5.2338,5.2862,5.2874,5.342,5.3847,5.4156,5.4156,5.4622,3.0358,3.2285,3.3977,3.5631,3.7133,3.8034,3.733,3.7702,3.7734,3.616,3.5784,3.5446,0.0,0.0,3.5339,3.774,3.8297,3.927,4.167,4.2083,4.2147,0.0,0.0,0.0,0.0,0.0,0.0,4.4705,0.0,4.7008,4.7045,4.8622,4.949,4.949,4.949,4.949,4.949,4.949,4.949,4.949,4.949,4.949,4.949,4.949,4.949,4.949,4.949,4.949,4.949,4.949,4.949,4.949,4.949,4.949,4.949,4.9565,4.9561,4.9565,4.9602,4.9565,4.949,4.949,4.949,4.9527,4.9565,4.9561,4.9715,5.0549,5.0774,5.1,5.178,5.2002,5.2039,5.2039,5.2002,5.1964,5.1964,5.1889,5.1851,5.1851,5.1814,5.1776,5.1776,5.1776,5.1776,5.1776,5.1776,5.1518,5.085,5.0774,5.1033,5.1814,5.1926,5.1964,5.1889,5.1926,5.1964,5.1889,5.1889,5.1889,5.1889,5.2473,5.2782,5.2795,5.3457,5.3775,5.3771,5.381,5.4273,5.5085,5.5085,5.5514,3.2575,3.4433,3.6391,3.7434,3.7552,3.7515,3.7887,3.7249,3.6195,3.5149,3.3947,3.2818,0.0,0.0,0.0,3.5394,3.8177,0.0,4.1891,4.3139,0.0,0.0,0.0,4.4281,4.4301,4.4947,0.0,0.0,4.6785,4.7271,4.7875,4.8927,4.949,4.949,4.949,4.949,4.949,4.949,4.949,4.949,4.949,4.949,4.949,4.949,4.949,4.949,4.949,4.949,4.949,4.949,4.949,4.949,4.949,4.949,4.9565,5.017,5.0399,5.0474,5.1067,5.05,4.949,4.949,4.949,4.9602,5.0207,5.0399,5.0545,5.1367,5.2047,5.2619,5.2802,5.3324,5.377,5.377,5.3286,5.2882,5.2882,5.1901,5.1,5.1,5.0504,5.0124,5.0124,5.0124,5.0124,5.0124,5.0124,5.0462,5.148,5.1593,5.1668,5.1889,5.2498,5.2615,5.1964,5.2498,5.2573,5.1926,5.1889,5.1889,5.1889,5.2475,5.2819,5.2795,5.4029,5.465,5.466,5.5322,5.5749,5.5981,5.5981,5.6099,3.4722,3.6313,3.7818,3.8641,3.8228,3.7477,3.6836,3.5706,3.4242,3.229,3.1123,0.0,0.0,0.0,0.0,0.0,0.0,0.0,4.2299,4.345,4.4017,0.0,4.4924,0.0,4.5683,4.6341,4.718,0.0,4.7747,4.7725,4.8183,4.9043,4.949,4.949,4.949,4.949,4.949,4.949,4.949,4.949,4.949,4.949,4.949,4.949,4.949,4.949,0.0,4.949,4.949,4.949,4.949,4.949,4.949,4.9715,5.0095,5.0512,5.0925,5.1292,5.1739,5.1326,5.0537,5.0537,5.0537,5.065,5.1108,5.1221,5.1409,5.2235,5.2802,5.3295,5.3629,5.4075,5.4296,5.3962,5.3516,5.3182,5.3182,5.2469,5.1905,5.2277,5.1972,5.1668,5.1668,5.1668,5.1668,5.1668,5.1668,5.1968,5.2869,5.2043,5.1518,5.1851,5.269,5.2994,5.2498,5.3253,5.3512,5.3019,5.3015,5.3015,5.3015,5.3592,5.3904,5.3904,5.5007,5.5553,5.5553,5.606,5.6489,5.6877,5.6877,5.707,3.6642,3.7853,3.8638,3.9398,3.8869,3.7512,3.5152,3.3794,3.2172,2.9049,0.0,0.0,2.7186,0.0,3.057,3.3773,0.0,3.8597,4.258,4.3276,4.3679,4.4482,4.5924,4.6883,4.7061,4.7762,4.8555,4.9415,4.8818,4.8367,4.8367,4.9077,4.949,4.949,4.949,4.949,4.949,4.949,4.949,4.949,4.949,4.949,4.949,4.949,4.949,4.949,0.0,0.0,4.949,4.949,4.949,4.949,4.949,4.9982,5.0703,5.0812,5.1371,5.2081,5.2189,5.2227,5.2189,5.1964,5.1889,5.1926,5.2039,5.2077,5.2231,5.3107,5.337,5.3516,5.4221,5.4409,5.4221,5.3516,5.3295,5.3182,5.3182,5.3107,5.3216,5.3921,5.4071,5.4071,5.4071,5.4071,5.4071,5.4071,5.4071,5.4071,5.4071,5.2385,5.1446,5.2152,5.2911,5.337,5.337,5.4,5.4409,5.4409,5.4409,5.4438,5.4455,5.4987,5.5302,5.5386,5.5989,5.6293,5.6293,5.6293,5.6683,5.7423,5.7539,5.7965,3.7956,3.8716,3.9398,3.9555,3.8425,3.6844,3.5001,3.2891,0.0,0.0,0.0,2.637,2.6222,2.7524,0.0,3.2169,0.0,0.0,0.0,0.0,4.3635,0.0,0.0,0.0,0.0,0.0,0.0,0.0,0.0,4.9265,4.9265,4.9415,4.949,4.949,4.949,4.949,4.949,4.949,4.949,4.949,4.949,4.949,4.949,4.949,4.949,4.949,4.949,0.0,4.949,4.949,4.949,4.949,4.949,4.9982,5.0774,5.1442,5.2235,5.3065,5.3737,5.3958,5.3733,5.2339,5.1889,5.2039,5.2765,5.2953,5.314,5.3962,5.4188,5.4221,5.4371,5.4409,5.4371,5.4225,5.3666,5.3182,5.3182,5.2611,5.2152,5.2302,5.2339,5.2339,5.2339,5.2339,5.2339,5.2339,5.2339,5.2339,5.2339,5.317,5.3808,5.3958,5.4108,5.4188,5.4188,5.4334,5.4409,5.4409,5.4409,5.4534,5.4806,5.5119,5.5445,5.5721,5.6104,5.6293,5.6293,5.6293,5.6371,5.6528,5.7267,5.7656,3.8757,3.9286,3.9592,3.9592,3.8046,3.5903,3.3797,0.0,0.0,0.0,0.0,2.5312,2.5312,0.0,0.0,0.0,0.0,0.0,0.0,0.0,0.0,0.0,0.0,0.0,0.0,0.0,0.0,0.0,0.0,4.949,4.949,4.949,4.949,4.949,4.949,4.949,4.949,4.949,4.949,4.949,4.949,4.949,4.949,4.949,4.949,4.949,4.949,0.0,4.949,4.949,4.949,4.949,4.949,5.0241,5.1371,5.1776,5.2719,5.3887,5.4259,5.4409,5.4259,5.3466,5.3207,5.3282,5.37,5.3812,5.3892,5.4296,5.4409,5.4409,5.4409,5.4409,5.4296,5.3887,5.3483,5.3182,5.3182,5.3216,5.3207,5.3207,5.3207,5.3207,5.3207,5.3207,5.3207,5.3207,5.3207,5.3207,5.3207,5.3883,5.4071,5.3203,5.3512,5.3779,5.3779,5.415,5.4409,5.4409,5.4409,5.4571,5.4902,5.5151,5.547,5.5787,5.6551,5.6994,5.6994,5.742,5.7845,5.8274,5.8703,5.9129,3.8948,3.9477,3.9592,3.9592,3.7743,3.5218,3.2668,3.0035,0.0,0.0,0.0,2.4518,2.4666,0.0,0.0,0.0,0.0,0.0,0.0,0.0,0.0,0.0,0.0,0.0,0.0,0.0,0.0,0.0,0.0,0.0,4.949,4.949,4.949,4.949,4.949,4.949,4.949,4.949,4.949,4.949,4.949,4.949,4.949,4.949,4.949,4.949,4.949,0.0,0.0,4.949,4.949,4.949,4.949,5.0391,5.1668,5.1851,5.2869,5.4188,5.4334,5.4409,5.4409,5.4409,5.4409,5.4409,5.4409,5.4409,5.4409,5.4409,5.4409,5.4409,5.4409,5.4409,5.4221,5.3591,5.3441,5.3441,5.3441,5.3962,5.4409,5.4409,5.4409,5.4409,5.4409,5.4409,5.4409,5.4409,5.4409,5.4409,5.4409,5.4409,5.3883,5.2565,5.3061,5.3441,5.3441,5.4038,5.4409,5.4409,5.4443,5.4724,5.522,5.5516,5.5899,5.6444,5.7388,5.7849,5.7849,5.8506,5.9164,5.9828,6.0023,6.0487,3.8372,3.8982,3.9592,3.9592,3.7743,3.5218,3.2668,0.0,0.0,0.0,2.4108,2.3812,2.4555,0.0,0.0,0.0,0.0,0.0,0.0,0.0,0.0,0.0,0.0,0.0,0.0,0.0,0.0,0.0,0.0,0.0,4.949,4.949,4.949,4.949,4.949,4.949,4.949,4.949,4.949,4.949,4.949,4.949,4.949,4.949,4.949,4.949,4.949,0.0,0.0,4.949,4.949,4.949,4.949,5.0057,5.0887,5.163,5.2498,5.3407,5.4146,5.4409,5.4409,5.4409,5.4409,5.4409,5.4409,5.4409,5.4409,5.4409,5.4409,5.4409,5.4409,5.4409,5.4371,5.4296,5.4296,5.4296,5.4296,5.4334,5.4409,5.4409,5.4409,5.4409,5.4409,5.4409,5.4409,5.4409,5.4409,5.4409,5.4409,5.4409,5.4334,5.4183,5.4221,5.4296,5.4296,5.4371,5.4409,5.4409,5.4629,5.5278,5.6401,5.6689,5.7373,5.8515,5.8612,5.8698,5.8698,5.8776,5.8854,5.8931,5.971,6.0139,3.7884,3.8942,3.9477,3.8945,3.6948,3.447,3.1949,0.0,0.0,2.4968,2.4073,2.3739,2.4553,2.497,0.0,0.0,0.0,0.0,0.0,0.0,0.0,0.0,0.0,0.0,0.0,0.0,0.0,0.0,0.0,0.0,4.949,4.949,4.949,4.949,4.949,4.949,4.949,4.949,4.949,4.949,4.949,4.949,4.949,4.949,4.949,4.949,4.949,0.0,0.0,4.949,4.949,4.949,4.949,4.9982,5.0812,5.1593,5.2118,5.2606,5.3921,5.4075,5.3779,5.4221,5.4409,5.4409,5.4409,5.4409,5.4409,5.4409,5.4409,5.4409,5.4409,5.4409,5.4409,5.4409,5.4409,5.4409,5.4409,5.4409,5.4409,5.4409,5.4409,5.4409,5.4409,5.4409,5.4409,5.4409,5.4409,5.4409,5.4409,5.4818,5.5114,5.5114,5.4705,5.4409,5.4409,5.4851,5.5114,5.5114,5.5877,5.6624,5.7361,5.7653,5.8101,5.8771,5.9322,5.9593,5.9593,6.0097,6.0367,6.0367,6.0717,6.0874,3.6686,3.8006,3.8722,3.8112,3.6088,3.3644,0.0,0.0,2.5731,2.4893,2.4073,2.3739,2.4553,2.4704,2.5156,0.0,0.0,0.0,0.0,0.0,0.0,0.0,0.0,0.0,0.0,0.0,0.0,0.0,0.0,0.0,4.949,4.949,4.949,4.949,4.949,4.949,4.949,4.949,4.949,4.949,4.949,4.949,4.949,4.949,4.949,4.949,0.0,0.0,0.0,4.949,4.949,4.949,4.949,4.9865,5.0436,5.1255,5.1705,5.2114,5.3545,5.3816,5.3666,5.4221,5.4409,5.4409,5.4409,5.4409,5.4409,5.4409,5.4409,5.4409,5.4409,5.4409,5.4409,5.4409,5.4409,5.4409,5.4409,5.4409,5.4409,5.4409,5.4409,5.448,5.4705,5.4742,5.4855,5.5085,5.5122,5.5122,5.5122,5.5644,5.5977,5.5977,5.5493,5.5122,5.5122,5.5644,5.5977,5.5977,5.6881,5.7672,5.8243,5.8605,5.905,5.9548,6.0174,6.0487,6.0487,6.1105,6.1414,6.1414,6.1414,6.1414,3.4435,3.5868,3.7107,3.711,3.5261,3.296,0.0,2.8352,2.5731,2.4893,2.4073,2.3739,2.4553,2.4704,2.5008,2.5884,0.0,0.0,0.0,0.0,0.0,0.0,0.0,0.0,0.0,0.0,0.0,0.0,0.0,0.0,4.949,4.949,4.949,4.949,4.949,4.949,4.949,4.949,4.949,4.949,4.949,4.949,4.949,4.949,4.949,0.0,0.0,0.0,0.0,4.949,4.949,4.949,4.949,4.9527,4.9602,5.0436,5.1221,5.2039,5.2919,5.3741,5.4409,5.4409,5.4409,5.4409,5.4409,5.4409,5.4409,5.4409,5.4409,5.4409,5.4409,5.4409,5.4409,5.4409,5.4409,5.4409,5.4409,5.4409,5.4409,5.4409,5.4409,5.463,5.5447,5.5593,5.5864,5.6741,5.6854,5.6854,5.6854,5.6891,5.6891,5.6891,5.6891,5.6854,5.6854,5.6891,5.6891,5.6891,5.7389,5.8102,5.906,5.9672,6.0408,6.1335,6.1375,6.1375,6.1375,6.1414,6.1414,6.1414,6.1414,6.1414,3.1837,3.3304,3.4282,3.3153,3.1877,3.0415,2.876,2.6697,2.5045,2.4741,2.4073,2.3739,2.4553,2.4704,2.5342,2.7332,0.0,0.0,0.0,0.0,0.0,0.0,0.0,0.0,0.0,0.0,0.0,0.0,0.0,0.0,4.949,4.949,4.949,4.949,4.949,4.949,4.949,4.949,4.949,4.949,4.949,4.949,4.949,4.949,4.949,0.0,0.0,0.0,0.0,4.949,4.949,4.949,4.949,4.949,4.9602,5.0395,5.0508,5.0537,5.2506,5.2986,5.2869,5.4033,5.4409,5.4409,5.4409,5.4409,5.4409,5.4409,5.4409,5.4409,5.4409,5.4409,5.4409,5.4409,5.4409,5.4409,5.4409,5.4409,5.4559,5.5114,5.5226,5.5489,5.6357,5.6507,5.6587,5.6854,5.6891,5.6891,5.6891,5.7375,5.7709,5.7709,5.8201,5.8093,5.7004,5.7408,5.7709,5.7709,5.8764,5.9597,5.9977,6.0558,6.1068,6.1373,6.1414,6.1414,6.1414,6.1414,6.1414,6.1414,6.1414,6.1414,0.0,3.0971,3.1764,3.071,2.9809,2.8873,2.7524,2.6174,2.5085,2.4779,2.4294,2.411,2.4591,2.4704,2.5227,2.6762,0.0,0.0,0.0,0.0,0.0,0.0,0.0,0.0,0.0,0.0,0.0,0.0,0.0,0.0,4.949,4.949,4.934,4.9002,4.934,4.949,4.949,4.949,4.949,4.949,4.949,4.949,4.949,4.949,4.949,0.0,0.0,0.0,0.0,4.949,4.949,4.949,4.949,4.949,4.9561,5.0057,5.0316,5.0616,5.216,5.2761,5.3019,5.4071,5.4409,5.4409,5.4409,5.4409,5.4409,5.4409,5.4409,5.4409,5.4409,5.4409,5.4409,5.4409,5.4409,5.448,5.478,5.4855,5.5118,5.594,5.609,5.6353,5.7225,5.7338,5.745,5.7755,5.7793,5.7793,5.7793,5.8234,5.8535,5.8535,5.8985,5.8877,5.7905,5.8272,5.8535,5.8535,5.9627,6.0275,6.0396,6.0998,6.1314,6.1414,6.1414,6.1414,6.1414,6.1727,6.1882,6.1882,6.2233,6.2389,0.0,2.8646,2.9331,2.9218,2.8608,2.7851,2.7108,2.6368,0.0,2.4781,2.4628,2.4628,2.4704,2.4704,2.4779,2.4927,0.0,0.0,0.0,0.0,0.0,0.0,0.0,0.0,0.0,0.0,0.0,0.0,0.0,0.0,4.9415,4.9336,4.8964,4.8142,4.8889,4.9336,4.9415,4.949,4.949,4.949,4.949,4.949,4.949,4.949,4.949,0.0,0.0,0.0,0.0,4.949,4.949,4.949,4.949,4.949,4.949,4.949,5.0466,5.1814,5.1889,5.2944,5.4334,5.4371,5.4409,5.4409,5.4409,5.4409,5.4409,5.4409,5.4409,5.4409,5.4409,5.4409,5.4409,5.4409,5.4446,5.4705,5.5447,5.5635,5.594,5.6812,5.7004,5.7225,5.8042,5.8192,5.846,5.9178,5.929,5.929,5.929,5.929,5.929,5.929,5.929,5.929,5.929,5.929,5.9299,5.9313,5.9943,6.0321,6.0409,6.099,6.1339,6.1414,6.1453,6.1492,6.1492,6.2389,6.2779,6.2818,6.3636,6.3987,2.3615,0.0,2.5569,2.4332,2.4334,2.4599,0.0,2.4229,0.0,0.0,0.0,0.0,0.0,0.0,0.0,0.0,0.0,0.0,0.0,0.0,0.0,0.0,0.0,0.0,0.0,0.0,0.0,0.0,0.0,4.8441,4.8514,4.7909,4.7492,4.7271,4.7496,4.7871,4.8517,4.9152,4.949,4.949,4.949,4.949,4.949,4.949,4.949,0.0,0.0,0.0,4.949,4.949,4.949,4.949,4.949,4.949,4.949,4.949,5.0128,5.1075,5.1701,5.2573,5.3591,5.4188,5.4409,5.4409,5.4409,5.4409,5.4409,5.4409,5.4409,5.4409,5.4409,5.4409,5.4409,5.4409,5.4851,5.5372,5.5555,5.6127,5.6849,5.7667,5.7817,5.8084,5.8877,5.9027,5.906,5.9253,5.929,5.929,5.929,5.929,5.929,5.929,5.929,5.929,5.929,5.929,5.9355,5.9536,6.0003,6.0364,6.0538,6.1025,6.1339,6.1414,6.2037,6.2389,6.2389,6.3284,6.3674,6.3713,6.3907,6.3987,2.1362,2.2901,2.4478,2.3615,2.3731,2.4035,0.0,0.0,0.0,0.0,0.0,0.0,0.0,0.0,0.0,0.0,0.0,0.0,0.0,0.0,0.0,0.0,0.0,0.0,0.0,0.0,0.0,0.0,0.0,4.7968,4.7684,4.7233,4.682,4.6407,4.6779,4.7383,4.8179,4.8668,4.9114,4.949,4.949,4.949,4.949,4.949,4.949,0.0,0.0,0.0,4.949,4.949,4.949,4.949,4.949,4.949,4.949,4.949,5.0241,5.1296,5.1739,5.2719,5.3812,5.4263,5.4409,5.4409,5.4409,5.4409,5.4409,5.4409,5.4409,5.4409,5.4409,5.4409,5.4484,5.4855,5.5264,5.5823,5.6573,5.7103,5.7676,5.8497,5.8647,5.8797,5.9215,5.929,5.929,5.929,5.929,5.929,5.929,5.929,5.929,5.929,5.929,5.9478,5.9853,5.9891,5.9824,5.9598,6.0063,6.0415,6.058,6.1095,6.155,6.1999,6.2857,6.3284,6.3284,6.4139,6.4566,6.4566,6.4955,6.5151,2.0535,2.2374,2.4628,2.4215,2.4403,2.466,0.0,0.0,0.0,0.0,0.0,0.0,0.0,0.0,0.0,0.0,0.0,0.0,0.0,0.0,0.0,0.0,0.0,0.0,0.0,0.0,0.0,0.0,0.0,4.7417,4.6813,4.6697,4.6284,4.5547,4.6219,4.7008,4.7804,4.807,4.863,4.949,4.949,4.949,4.949,4.949,4.949,4.949,0.0,0.0,4.949,4.949,4.949,4.949,4.949,4.949,4.949,4.949,5.0537,5.1926,5.2189,5.3203,5.4409,5.4409,5.4409,5.4409,5.4409,5.4409,5.4409,5.4409,5.4409,5.4409,5.4409,5.4484,5.4742,5.5447,5.5785,5.6386,5.7779,5.8192,5.8492,5.9178,5.929,5.929,5.929,5.929,5.929,5.929,5.929,5.929,5.929,5.9403,5.9515,5.9515,5.9591,5.9966,6.0712,6.0787,6.0585,6.0057,6.0506,6.088,6.1117,6.1578,6.2154,6.2896,6.375,6.4179,6.4179,6.4992,6.5417,6.5417,6.6157,6.6507,2.1779,2.3277,2.4215,2.2081,2.3168,2.4487,0.0,0.0,0.0,0.0,0.0,0.0,0.0,0.0,0.0,0.0,0.0,0.0,0.0,0.0,0.0,0.0,0.0,0.0,0.0,0.0,0.0,0.0,0.0,4.5847,4.5912,4.5193,4.4774,4.4673,4.4823,4.5281,4.6073,4.7503,4.863,4.949,4.949,4.949,4.949,4.949,4.949,4.949,0.0,4.949,4.949,4.949,4.949,4.949,4.949,4.949,4.949,4.949,5.0537,5.2114,5.3508,5.4183,5.4409,5.4409,5.4409,5.4409,5.4409,5.4409,5.4409,5.4409,5.4409,5.4409,5.4409,5.4926,5.5447,5.556,5.6686,5.7779,5.8042,5.8647,5.914,5.929,5.929,5.929,5.929,5.929,5.929,5.929,5.929,5.929,5.929,5.9924,6.0412,6.0412,6.1017,6.1473,6.1586,6.1623,6.1709,6.1957,6.2324,6.2808,6.3432,6.3573,6.3674,6.3791,6.4603,6.5029,6.5029,6.5885,6.6312,6.6312,6.6429,6.6507,2.0722,2.2372,2.3634,2.2421,2.412,0.0,0.0,0.0,0.0,0.0,0.0,0.0,0.0,0.0,0.0,0.0,0.0,0.0,0.0,0.0,0.0,0.0,0.0,0.0,0.0,0.0,0.0,0.0,0.0,0.0,4.5079,4.4658,4.4422,4.4482,4.4485,4.4902,4.5697,4.6452,4.7503,4.8818,4.8818,4.9039,4.949,4.949,4.949,4.949,0.0,4.949,4.949,4.949,4.949,4.949,4.949,4.949,4.9565,4.9982,5.0879,5.2077,5.3324,5.4038,5.4409,5.4409,5.4409,5.4409,5.4409,5.4409,5.4409,5.4409,5.4409,5.4484,5.4926,5.5335,5.5823,5.6724,5.7554,5.823,5.8647,5.9027,5.929,5.929,5.929,5.929,5.929,5.929,5.929,5.929,5.929,5.9478,5.9924,6.0337,6.0787,6.1205,6.1586,6.1999,6.2449,6.2482,6.2535,6.2658,6.2967,6.3402,6.3974,6.4411,6.4642,6.4642,6.5458,6.5883,6.5883,6.6312,6.6507,6.6507,6.6507,6.6507,2.0352,2.1803,2.331,0.0,0.0,0.0,0.0,0.0,0.0,0.0,0.0,0.0,0.0,0.0,0.0,0.0,0.0,0.0,0.0,0.0,0.0,0.0,0.0,0.0,0.0,0.0,0.0,0.0,0.0,0.0,4.4491,4.4404,4.4404,4.4482,4.4485,4.4789,4.5393,4.5435,4.6261,4.7917,4.8104,4.8555,4.9189,4.9415,4.949,4.949,4.949,4.949,4.949,4.949,4.949,4.949,4.949,4.949,4.9602,5.0395,5.1221,5.2002,5.2915,5.3741,5.4409,5.4409,5.4409,5.4409,5.4409,5.4409,5.4409,5.4409,5.4555,5.4818,5.5447,5.5747,5.6273,5.7742,5.823,5.8535,5.9178,5.929,5.929,5.929,5.929,5.929,5.929,5.929,5.9365,5.9553,5.9591,5.9929,6.0787,6.105,6.143,6.2036,6.2261,6.2675,6.3308,6.3476,6.3503,6.3423,6.3773,6.4164,6.4559,6.5186,6.5495,6.5495,6.6157,6.6507,6.6507,6.6507,6.639,6.6196,6.639,6.639,2.249,2.2966,2.3449,0.0,0.0,0.0,0.0,0.0,0.0,0.0,0.0,0.0,0.0,0.0,0.0,0.0,0.0,0.0,0.0,0.0,0.0,0.0,0.0,0.0,0.0,0.0,0.0,0.0,0.0,0.0,4.439,4.4329,4.4388,4.4482,4.4485,4.4523,4.4598,4.4598,4.5427,4.7083,4.7841,4.8217,4.833,4.9114,4.949,4.949,4.949,4.949,4.949,4.949,4.949,4.949,4.949,4.949,4.9602,5.0395,5.1221,5.2002,5.2915,5.3741,5.4409,5.4409,5.4409,5.4409,5.4409,5.4409,5.4409,5.4409,5.4926,5.5522,5.5597,5.6202,5.7037,5.7892,5.8685,5.9215,5.929,5.929,5.929,5.929,5.929,5.929,5.929,5.929,5.9553,6.0374,6.0525,6.0787,6.1623,6.2407,6.2928,6.3008,6.3688,6.4144,6.4219,6.4563,6.4832,6.492,6.5507,6.5982,6.6303,6.639,6.639,6.639,6.6468,6.6507,6.6507,6.6507,6.6079,6.53,6.6118,6.6079,2.1287,2.2549,0.0,0.0,0.0,0.0,0.0,0.0,0.0,0.0,0.0,0.0,0.0,0.0,0.0,0.0,0.0,0.0,0.0,0.0,0.0,0.0,0.0,0.0,0.0,0.0,0.0,0.0,0.0,0.0,0.0,4.4296,4.4325,4.4426,4.4464,4.4485,4.4485,4.4485,4.4823,4.5461,4.6261,4.7203,4.8221,4.8555,4.9006,4.949,4.949,4.949,4.949,4.949,4.949,4.949,4.949,4.949,4.9602,5.0395,5.1221,5.2002,5.2915,5.3741,5.4409,5.4409,5.4409,5.4409,5.4409,5.4409,5.4409,5.4409,5.4963,5.571,5.6282,5.7033,5.7859,5.8647,5.9065,5.929,5.929,5.929,5.929,5.929,5.929,5.929,5.929,5.9741,6.0224,6.0562,6.1013,6.1656,6.2482,6.2895,6.3308,6.3801,6.4106,6.4294,6.4294,6.4666,6.4968,6.5087,6.5559,6.5919,6.6164,6.6263,6.631,6.631,6.6429,6.6507,6.6507,6.6507,6.6312,6.6002,6.6351,6.6312,2.0834,2.2166,2.3757,0.0,0.0,0.0,0.0,0.0,0.0,0.0,0.0,0.0,0.0,0.0,0.0,0.0,0.0,0.0,0.0,0.0,0.0,0.0,0.0,0.0,0.0,0.0,0.0,0.0,0.0,0.0,0.0,4.4158,4.424,4.4422,4.4464,4.4485,4.4485,4.4485,4.4485,4.4523,4.5056,4.6186,4.7838,4.8067,4.8668,4.949,4.949,4.949,4.949,4.949,4.949,4.949,4.949,4.949,4.9602,5.0395,5.1221,5.2002,5.2915,5.3741,5.4409,5.4409,5.4409,5.4409,5.4409,5.4409,5.4409,5.4409,5.5193,5.6165,5.6741,5.7483,5.8305,5.9102,5.929,5.929,5.929,5.929,5.929,5.929,5.929,5.9403,5.9666,6.0224,6.0787,6.1313,6.1844,6.2519,6.3388,6.3463,6.3688,6.4257,6.4294,6.4294,6.4294,6.4638,6.4903,6.5043,6.5382,6.5717,6.5971,6.6095,6.6179,6.6187,6.6325,6.6429,6.6507,6.6429,6.6253,6.602,6.625,6.6213,2.1749,2.2086,0.0,0.0,0.0,0.0,0.0,0.0,0.0,0.0,0.0,0.0,0.0,0.0,0.0,0.0,0.0,0.0,0.0,0.0,0.0,0.0,0.0,0.0,0.0,0.0,0.0,0.0,0.0,0.0,0.0,4.3811,4.4003,4.4471,4.4485,4.4485,4.4485,4.4485,4.4485,4.4485,4.4485,4.5352,4.7008,4.7838,4.8668,4.9486,4.949,4.949,4.949,4.949,4.949,4.949,4.949,4.949,4.9602,5.0399,5.1221,5.2039,5.2919,5.3741,5.4409,5.4409,5.4409,5.4409,5.4409,5.4409,5.4409,5.4409,5.561,5.6891,5.6891,5.7521,5.8305,5.9102,5.929,5.929,5.929,5.929,5.929,5.929,5.929,5.9591,6.0449,6.06,6.1163,6.2857,6.312,6.3388,6.4182,6.4294,6.4294,6.4294,6.4294,6.4294,6.4294,6.4539,6.4752,6.488,6.514,6.5501,6.596,6.6019,6.606,6.6182,6.6187,6.6297,6.6503,6.6297,6.5797,6.5013,6.5674,6.5646,2.1743,0.0,0.0,0.0,0.0,0.0,0.0,0.0,0.0,0.0,0.0,0.0,0.0,0.0,0.0,0.0,0.0,0.0,0.0,0.0,0.0,0.0,0.0,0.0,0.0,0.0,0.0,0.0,0.0,0.0,0.0,4.3664,4.3934,4.4411,4.4464,4.4485,4.4485,4.4485,4.4485,4.4485,4.4485,4.5052,4.6107,4.697,4.78,4.863,4.9227,4.949,4.949,4.949,4.949,4.949,4.949,4.949,4.9674,5.1029,5.1705,5.2114,5.3545,5.4188,5.4409,5.4409,5.4409,5.4409,5.4409,5.4409,5.4521,5.5076,5.6057,5.7042,5.7596,5.8347,5.8985,5.9253,5.929,5.929,5.929,5.929,5.929,5.929,5.929,5.9591,6.0449,6.1055,6.1806,6.2932,6.3576,6.4031,6.4257,6.4294,6.4294,6.4294,6.4294,6.4069,6.3496,6.4171,6.4188,6.3216,6.387,6.468,6.5538,6.5695,6.5798,6.5856,6.5994,6.6084,6.6134,6.6084,6.5942,6.5707,6.589,6.5892,2.2851,0.0,0.0,0.0,0.0,0.0,0.0,0.0,0.0,0.0,0.0,0.0,0.0,0.0,0.0,0.0,0.0,0.0,0.0,0.0,0.0,0.0,0.0,0.0,0.0,0.0,0.0,0.0,0.0,0.0,0.0,4.3586,4.3934,4.4386,4.4457,4.4485,4.4485,4.4485,4.4485,4.4485,4.4485,4.4752,4.5243,4.6107,4.7124,4.8258,4.9114,4.949,4.949,4.949,4.949,4.949,4.949,4.949,4.9674,5.1326,5.1889,5.2152,5.3808,5.4409,5.4409,5.4409,5.4409,5.4409,5.4409,5.4409,5.4555,5.5372,5.6244,5.7079,5.7892,5.8685,5.929,5.929,5.929,5.929,5.929,5.929,5.929,5.929,5.929,5.9666,6.0867,6.1473,6.2186,6.3388,6.3994,6.4294,6.4294,6.4294,6.4182,6.3876,6.3801,6.3501,6.2632,6.32,6.3246,6.2463,6.298,6.3674,6.4374,6.4517,6.4631,6.4721,6.4813,6.4914,6.4985,6.5217,6.5371,6.5368,6.5634,6.5791,0.0,0.0,0.0,0.0,0.0,0.0,0.0,0.0,0.0,0.0,0.0,0.0,0.0,0.0,0.0,0.0,0.0,0.0,0.0,0.0,0.0,0.0,0.0,0.0,0.0,0.0,0.0,0.0,0.0,0.0,0.0,4.354,4.3969,4.4386,4.4457,4.4485,4.4485,4.4485,4.4485,4.4485,4.4485,4.4485,4.4523,4.5318,4.6599,4.8258,4.9039,4.9415,4.949,4.949,4.949,4.949,4.949,4.949,4.9674,5.1326,5.1889,5.2152,5.3808,5.4409,5.4409,5.4409,5.4409,5.4409,5.4409,5.4409,5.4592,5.5485,5.6282,5.7112,5.7971,5.876,5.929,5.929,5.929,5.929,5.929,5.929,5.929,5.929,5.929,5.9816,6.151,6.1811,6.2374,6.4069,6.4294,6.4294,6.4294,6.4257,6.3914,6.3195,6.3045,6.2632,6.1773,6.1855,6.2036,6.2142,6.2273,6.2469,6.2675,6.2804,6.2992,6.3166,6.3172,6.3263,6.3475,6.4061,6.4426,6.45,6.5135,6.549,0.0,0.0,0.0,0.0,0.0,0.0,0.0,0.0,0.0,0.0,0.0,0.0,0.0,0.0,0.0,0.0,0.0,0.0,0.0,0.0,0.0,0.0,0.0,0.0,0.0,0.0,0.0,0.0,0.0,0.0,4.3355,4.3599,4.3922,4.4386,4.4457,4.4485,4.4485,4.4485,4.4485,0.0,4.4485,4.4485,4.4523,4.5318,4.6599,4.8221,4.8405,4.8852,4.949,4.949,4.949,4.949,4.949,4.949,4.9674,5.1326,5.1889,5.2152,5.3808,5.4409,5.4409,5.4409,5.4409,5.4409,5.4409,5.4409,5.4709,5.6211,5.6774,5.7229,5.8652,5.9178,5.929,5.929,5.929,5.929,5.929,5.929,5.929,5.929,5.929,5.9816,6.151,6.1811,6.2374,6.4069,6.4294,6.4294,6.4294,6.3764,6.3308,6.312,6.2482,6.1731,6.0942,6.1454,6.1403,6.0362,6.0993,6.1233,6.0877,6.2168,6.291,6.2964,6.2967,6.3302,6.4043,6.4185,6.4578,6.5182,6.5321,6.5402,0.0,0.0,0.0,0.0,0.0,0.0,0.0,0.0,0.0,0.0,0.0,0.0,0.0,0.0,0.0,0.0,0.0,0.0,0.0,0.0,0.0,0.0,0.0,0.0,0.0,0.0,0.0,0.0,0.0,4.272,4.3239,4.3726,4.4086,4.4336,4.4436,4.4485,4.4485,4.4485,4.4485,4.4485,4.4485,4.4485,4.4523,4.5318,4.6411,4.765,4.8029,4.8705,4.949,4.949,4.949,4.949,4.949,4.949,4.964,5.0879,5.1555,5.2077,5.3362,5.4075,5.4409,5.4409,5.4409,5.4409,5.4409,5.4409,5.4747,5.6441,5.6891,5.7267,5.8877,5.929,5.929,5.929,5.929,5.929,5.929,5.929,5.929,5.929,5.929,5.9816,6.151,6.2487,6.328,6.4182,6.3951,6.3726,6.3726,6.3012,6.2332,6.1951,6.1506,6.0905,6.0036,6.0342,6.0331,5.9701,6.0186,6.0433,6.0224,6.1528,6.2086,6.1707,6.1707,6.2131,6.2972,6.3354,6.4003,6.4844,6.5222,6.5413,0.0,0.0,0.0,0.0,0.0,0.0,0.0,0.0,0.0,0.0,0.0,0.0,0.0,0.0,0.0,0.0,0.0,0.0,0.0,0.0,0.0,0.0,0.0,0.0,0.0,0.0,0.0,0.0,0.0,4.28,4.3,4.3714,4.415,4.415,4.4332,4.4429,4.4429,4.4468,4.4485,4.4485,4.4485,4.4485,4.4523,4.5206,4.6032,4.7042,4.7687,4.8555,4.949,4.949,4.949,4.949,4.949,4.949,4.9602,5.0395,5.1221,5.2002,5.2915,5.3741,5.4409,5.4409,5.4409,5.4409,5.4409,5.4409,5.4747,5.6441,5.6891,5.7267,5.8877,5.929,5.929,5.929,5.929,5.929,5.929,5.929,5.929,5.929,5.9515,6.0229,6.1773,6.328,6.4257,6.4106,6.3533,6.3045,6.2895,6.2106,6.1355,6.0675,6.0487,6.0074,5.9365,5.929,5.9377,5.962,5.9799,6.0012,6.0338,6.1135,6.1363,6.0832,6.0835,6.1214,6.2051,6.2777,6.3579,6.4428,6.5073,6.5413,0.0,0.0,0.0,0.0,0.0,0.0,0.0,0.0,0.0,0.0,0.0,0.0,0.0,0.0,0.0,0.0,0.0,0.0,0.0,0.0,0.0,0.0,0.0,0.0,0.0,0.0,0.0,0.0,4.2338,4.2621,4.2991,4.3346,4.3535,4.3535,4.3922,4.4158,4.4158,4.439,4.4485,4.4485,4.4485,4.4485,4.4485,4.4598,4.5503,4.7008,4.7117,4.8059,4.949,4.949,4.949,4.949,4.949,4.949,4.9602,5.0395,5.1221,5.2002,5.2915,5.3741,5.4409,5.4409,5.4409,5.4409,5.4409,5.4409,5.4747,5.6441,5.6891,5.7267,5.8877,5.929,5.929,5.929,5.929,5.929,5.929,5.929,5.929,5.929,6.0459,6.1773,6.2745,6.3688,6.4069,6.3383,6.3158,6.282,6.2074,6.1243,6.0712,6.06,5.9929,5.944,5.929,5.929,5.9405,5.9668,5.9828,6.0309,6.1263,6.1511,6.1895,6.2544,6.2582,6.3006,6.3854,6.3969,6.4424,6.5222,6.5337,6.5413,0.0,0.0,0.0,0.0,0.0,0.0,0.0,0.0,0.0,0.0,0.0,0.0,0.0,0.0,0.0,0.0,0.0,0.0,0.0,0.0,0.0,0.0,0.0,0.0,0.0,0.0,0.0,0.0,4.2164,4.2453,4.2813,4.316,4.3394,4.3501,4.3738,4.3736,4.3424,4.3986,4.4361,4.4485,4.4485,4.4485,4.4485,4.4485,4.5424,4.6967,4.6482,4.7496,4.9448,4.8964,4.9043,4.949,4.949,4.949,4.9527,4.9907,5.0804,5.1964,5.2348,5.3324,5.4409,5.4409,5.4409,5.4409,5.4409,5.4705,5.5343,5.6549,5.7225,5.7821,5.899,5.929,5.929,5.929,5.929,5.929,5.929,5.929,5.944,5.9929,6.098,6.2074,6.2932,6.3383,6.3501,6.3158,6.2289,6.1576,6.1168,6.0379,5.9886,5.9886,5.9515,5.929,5.929,5.9387,5.9503,5.9659,6.0327,6.0966,6.1416,6.2489,6.3239,6.3621,6.3155,6.335,6.4202,6.4202,6.4619,6.5413,6.5413,6.5413,0.0,0.0,0.0,0.0,0.0,0.0,0.0,0.0,0.0,0.0,0.0,0.0,0.0,0.0,0.0,0.0,0.0,0.0,0.0,0.0,0.0,0.0,0.0,0.0,0.0,0.0,0.0,0.0,4.197,4.2205,4.2514,4.2855,4.3173,4.3428,4.3594,4.3544,4.3197,4.3867,4.4284,4.4485,4.4485,4.4485,4.4485,4.4485,4.5277,4.6632,4.5998,4.7162,4.9415,4.8555,4.8705,4.949,4.949,4.949,4.949,4.949,5.0537,5.1889,5.1889,5.3015,5.4409,5.4409,5.4409,5.4409,5.4409,5.4963,5.5785,5.6662,5.7488,5.8305,5.9102,5.929,5.929,5.929,5.929,5.929,5.929,5.9478,5.9886,6.075,6.1393,6.2074,6.2932,6.2932,6.2707,6.2519,6.1388,6.0525,6.0299,5.9703,5.929,5.929,5.929,5.9313,5.9359,5.9528,5.9726,6.0051,6.0883,6.1618,6.2079,6.3455,6.4317,6.4504,6.3885,6.3847,6.4504,6.4504,6.4806,6.5413,6.5413,6.5413,0.0,0.0,0.0,0.0,0.0,0.0,0.0,0.0,0.0,0.0,0.0,0.0,0.0,0.0,0.0,0.0,0.0,0.0,0.0,0.0,0.0,0.0,0.0,0.0,0.0,0.0,0.0,0.0,4.1742,4.1872,4.2019,4.2302,4.2642,4.3028,4.3463,4.3807,4.4035,4.4327,4.4475,4.4485,4.4485,4.4485,4.4485,4.4485,4.4977,4.5772,4.5735,4.7162,4.9415,4.8555,4.8705,4.949,4.949,4.949,4.949,4.949,5.0537,5.1889,5.1889,5.3015,5.4409,5.4409,5.4409,5.4409,5.4409,5.4963,5.5785,5.6662,5.7488,5.8305,5.9102,5.929,5.929,5.929,5.929,5.929,5.929,5.9961,6.0787,6.1586,6.1773,6.2074,6.2932,6.2407,6.1618,6.0825,6.0675,6.0299,5.9478,5.9328,5.929,5.929,5.929,5.9364,5.9576,5.9603,6.0106,6.1248,6.1362,6.2201,6.3992,6.4156,6.4542,6.5337,6.5299,6.5299,6.5337,6.5337,6.5375,6.5413,6.5413,6.5413,0.0,0.0,0.0,0.0,0.0,0.0,0.0,0.0,0.0,0.0,0.0,0.0,0.0,0.0,0.0,0.0,0.0,0.0,0.0,0.0,0.0,0.0,0.0,0.0,0.0,0.0,0.0,0.0,0.0,4.1753,4.1925,4.2199,4.2444,4.2734,4.3041,4.3385,4.3856,4.3776,4.4004,4.4485,4.4485,4.4485,4.4485,4.4485,4.4939,4.566,4.5168,4.6332,4.8589,4.7763,4.8251,4.949,4.949,4.949,4.9561,5.0095,5.0954,5.1964,5.2535,5.3474,5.4409,5.4409,5.4409,5.4484,5.5001,5.5756,5.6624,5.7446,5.7892,5.8305,5.9102,5.8915,5.8647,5.9178,5.929,5.929,5.929,5.9553,6.0154,6.1548,6.1393,6.128,6.2111,6.1581,6.0942,6.0637,6.0112,5.9666,5.9328,5.929,5.929,5.929,5.9907,6.0355,6.0417,6.109,6.1693,6.212,6.2803,6.3493,6.416,6.4695,6.5112,6.5375,6.5413,6.5413,6.5413,6.5413,6.5413,6.5413,6.5413,6.5413,0.0,0.0,0.0,0.0,0.0,0.0,0.0,0.0,0.0,0.0,0.0,0.0,0.0,0.0,0.0,0.0,0.0,0.0,0.0,0.0,0.0,0.0,0.0,0.0,0.0,0.0,0.0,0.0,0.0,0.0,4.1938,4.2189,4.2475,4.2816,4.3059,4.332,4.371,4.3618,4.3858,4.4376,4.445,4.4485,4.4485,4.4485,4.4789,4.5281,4.4711,4.5919,4.8146,4.7346,4.7984,4.949,4.949,4.949,4.9602,5.0395,5.1221,5.2002,5.2915,5.3741,5.4409,5.4409,5.4409,5.4559,5.5372,5.6207,5.7,5.7558,5.7892,5.8155,5.8427,5.8309,5.8305,5.9102,5.929,5.9365,5.9666,5.9741,6.0079,6.1168,6.098,6.0787,6.1318,6.0717,6.0149,6.0149,5.9666,5.929,5.929,5.9553,5.9741,5.9741,6.065,6.1327,6.1386,6.2129,6.2729,6.3119,6.3798,6.4313,6.458,6.5112,6.5413,6.5413,6.5413,6.5413,6.5413,6.5413,6.5413,6.5413,6.5413,6.5413,0.0,0.0,0.0,0.0,0.0,0.0,0.0,0.0,0.0,0.0,0.0,0.0,0.0,0.0,0.0,0.0,0.0,0.0,0.0,0.0,0.0,0.0,0.0,0.0,0.0,0.0,0.0,0.0,4.1604,4.1758,4.2095,4.2236,4.2603,4.3286,4.3568,4.3705,4.3714,4.3982,4.4113,4.4124,4.4383,4.4485,4.4485,4.4485,4.4485,4.4485,4.4523,4.5919,4.8104,4.7308,4.7984,4.949,4.949,4.949,4.9599,5.0436,5.1221,5.2039,5.2915,5.3741,5.4409,5.4409,5.4409,5.4559,5.5372,5.624,5.6891,5.6929,5.7488,5.7892,5.7112,5.7521,5.8342,5.9102,5.929,5.9515,6.0374,6.0562,6.0562,6.06,6.0562,6.0562,6.0562,5.9853,5.929,5.929,5.929,5.929,5.9328,6.0074,6.06,6.0637,6.1483,6.2159,6.2412,6.2513,6.3056,6.4145,6.4236,6.458,6.5375,6.5413,6.5413,6.5413,6.5413,6.5413,6.5413,6.5413,6.5413,6.5413,6.5413,6.5413,1.9636,0.0,0.0,0.0,0.0,0.0,0.0,0.0,0.0,0.0,0.0,0.0,0.0,0.0,0.0,0.0,0.0,0.0,0.0,0.0,0.0,0.0,0.0,0.0,0.0,0.0,0.0,0.0,4.1747,4.1847,4.1938,4.2328,4.2652,4.3004,4.3286,4.3484,4.371,4.3982,4.4196,4.4397,4.4454,4.4485,4.4485,4.4485,4.4485,4.4523,4.5131,4.611,4.7308,4.7083,4.7984,4.949,4.949,4.949,4.9674,5.1067,5.1701,5.2114,5.3549,5.4221,5.4409,5.4409,5.4409,5.4672,5.6099,5.6699,5.7004,5.7596,5.7521,5.7187,5.6967,5.7938,5.9027,5.9253,5.929,5.9365,5.9591,5.9666,5.9853,6.0487,6.0074,5.9666,5.9666,5.9478,5.929,5.929,5.929,5.9515,6.0149,6.0449,6.0825,6.1393,6.2349,6.3006,6.3192,6.3905,6.4576,6.4974,6.5039,6.5188,6.5375,6.5413,6.5413,6.5413,6.5413,6.5413,6.5413,6.5413,6.5413,6.5413,6.5413,6.5413,0.0,0.0,0.0,0.0,0.0,0.0,0.0,0.0,0.0,0.0,0.0,0.0,0.0,0.0,0.0,0.0,0.0,0.0,0.0,0.0,0.0,0.0,0.0,0.0,0.0,4.1599,4.1599,4.1599,4.1801,4.1833,4.1701,4.2339,4.2614,4.2407,4.2873,4.3036,4.2865,4.3475,4.3738,4.3688,4.412,4.4397,4.4485,4.4485,4.4485,4.4523,4.5359,4.6127,4.6824,4.7305,4.8288,4.949,4.949,4.949,4.9674,5.1326,5.1889,5.2152,5.3808,5.4409,5.4409,5.4409,5.463,5.5155,5.6474,5.7112,5.7446,5.7558,5.6995,5.6436,5.6816,5.7826,5.8873,5.9215,5.929,5.929,5.929,5.929,5.944,5.9966,5.9666,5.929,5.929,5.929,5.9403,5.9778,5.9849,6.0154,6.098,6.143,6.1801,6.2299,6.3196,6.3855,6.4076,6.4693,6.5139,6.5329,6.5387,6.5413,6.5413,6.5413,6.5413,6.5413,6.5413,6.5413,6.5413,6.5413,6.5413,6.5413,6.5413,6.5413,0.0,0.0,0.0,0.0,0.0,0.0,2.6054,2.6054,0.0,0.0,0.0,0.0,0.0,0.0,0.0,0.0,0.0,0.0,0.0,0.0,0.0,0.0,0.0,0.0,4.1464,4.1486,4.1532,4.1626,4.1815,4.1858,4.1571,4.2317,4.2448,4.1705,4.2303,4.2358,4.1755,4.2681,4.2988,4.263,4.3595,4.4177,4.4408,4.4408,4.4408,4.4449,4.5352,4.6019,4.6536,4.7772,4.8723,4.9408,4.9435,4.9447,4.9635,5.1248,5.1864,5.2152,5.3808,5.4409,5.4409,5.4409,5.4926,5.5747,5.6624,5.7446,5.7967,5.7225,5.6394,5.594,5.6812,5.7634,5.8417,5.914,5.929,5.929,5.929,5.929,5.929,5.929,5.929,5.929,5.929,5.9365,5.9703,6.0487,6.0675,6.1013,6.1848,6.2632,6.312,6.3233,6.3913,6.4501,6.4831,6.495,6.5086,6.5371,6.5402,6.5413,6.5413,6.5413,6.5413,6.5413,6.5413,6.5413,6.5413,6.5413,6.5413,6.5413,6.5413,6.5413,2.3385,2.37,2.4092,0.0,0.0,0.0,0.0,2.3363,0.0,0.0,0.0,0.0,0.0,0.0,0.0,0.0,0.0,0.0,0.0,0.0,0.0,0.0,0.0,0.0,4.0637,4.0868,4.1179,4.1728,4.2086,4.2382,4.2594,4.2166,4.1854,4.1705,4.1202,4.1329,4.2036,4.2243,4.2731,4.3463,4.3697,4.382,4.3868,4.3868,4.3868,4.3942,4.5391,4.6066,4.6336,4.8091,4.8823,4.8803,4.9014,4.9094,4.9285,5.0976,5.1711,5.2152,5.3808,5.4409,5.4409,5.4409,5.4926,5.5747,5.6624,5.7446,5.808,5.7892,5.7296,5.6849,5.7667,5.846,5.9102,5.9253,5.929,5.929,5.929,5.929,5.929,5.929,5.929,5.929,5.929,5.9886,6.0412,6.0562,6.1168,6.1886,6.2745,6.3008,6.3345,6.3994,6.4234,6.4413,6.4638,6.4817,6.5006,6.5248,6.5344,6.5413,6.5413,6.5413,6.5413,6.5413,6.5413,6.5413,6.5413,6.5413,6.5413,6.5413,6.5413,6.5413,2.5218,2.5399,2.5772,2.5592,0.0,0.0,0.0,0.0,0.0,0.0,0.0,0.0,0.0,0.0,0.0,0.0,0.0,0.0,0.0,0.0,0.0,0.0,0.0,0.0,3.9854,4.0047,4.051,4.1393,4.2088,4.2434,4.2264,4.1903,4.1528,4.1126,4.1094,4.1166,4.1289,4.2095,4.2611,4.2873,4.3279,4.3531,4.366,4.3697,4.375,4.399,4.5634,4.6339,4.6459,4.8439,4.8989,4.8655,4.9065,4.9254,4.9441,5.1095,5.1778,5.2152,5.3808,5.4409,5.4409,5.4409,5.5231,5.6319,5.6779,5.7187,5.7596,5.8004,5.7521,5.7079,5.7892,5.8685,5.929,5.929,5.929,5.929,5.929,5.929,5.929,5.929,5.929,5.944,5.9886,6.0299,6.0862,6.1726,6.2181,6.275,6.3576,6.3688,6.3839,6.4257,6.4294,6.4379,6.4582,6.4736,6.4886,6.5157,6.5286,6.5368,6.5413,6.5413,6.5413,6.5413,6.5413,6.5413,6.5413,6.5413,6.5413,6.5413,6.5413,6.5413,0.0,0.0,0.0,0.0,0.0,2.5488,0.0,0.0,0.0,0.0,0.0,0.0,0.0,0.0,0.0,0.0,0.0,0.0,0.0,0.0,0.0,0.0,0.0,0.0,0.0,3.8893,3.961,4.0834,4.1546,4.1845,4.1615,4.1663,4.1343,4.0515,4.113,4.1166,4.0515,4.1922,4.2481,4.2185,4.2854,4.3308,4.3482,4.3538,4.3652,4.3974,4.5618,4.6314,4.6429,4.8414,4.8972,4.8669,4.9197,4.9491,4.9791,5.129,5.1961,5.2381,5.3883,5.4409,5.4409,5.4409,5.5535,5.6929,5.7075,5.7112,5.7263,5.7929,5.7634,5.7338,5.8122,5.8797,5.929,5.929,5.929,5.929,5.929,5.929,5.929,5.929,5.944,5.9774,6.0487,6.0712,6.1355,6.2852,6.3233,6.3571,6.4219,6.4294,6.4294,6.4294,6.4294,6.4369,6.4553,6.4624,6.4811,6.5048,6.518,6.5309,6.541,6.5413,6.5413,6.5413,6.5413,6.5413,6.5413,6.5413,6.5413,6.5413,6.5413,6.5413,0.0,0.0,0.0,0.0,2.7661,0.0,0.0,0.0,0.0,0.0,0.0,0.0,0.0,0.0,0.0,0.0,0.0,0.0,0.0,0.0,0.0,0.0,0.0,0.0,0.0,3.7057,3.8342,4.0093,3.9814,4.018,4.1548,4.1663,4.1343,4.0515,4.0587,4.0587,4.0515,4.1315,4.2092,4.2816,4.2849,4.2904,4.2981,4.299,4.3013,4.3118,4.475,4.5435,4.5569,4.7484,4.8393,4.8646,4.8946,4.9479,5.0238,5.1203,5.2189,5.3178,5.4075,5.4409,5.4409,5.4409,5.5535,5.7042,5.7746,5.7967,5.7967,5.808,5.8042,5.8155,5.8952,5.9215,5.929,5.929,5.929,5.929,5.929,5.929,5.929,5.929,5.9929,6.0487,6.0562,6.1205,6.1999,6.297,6.3726,6.4182,6.4294,6.4294,6.4294,6.4294,6.4294,6.4334,6.4405,6.4553,6.474,6.4989,6.5094,6.5216,6.5406,6.5413,6.5413,6.5413,6.5413,6.5413,6.5413,6.5413,6.5413,6.5413,6.5413,6.5413,0.0,0.0,0.0,0.0,0.0,0.0,0.0,0.0,2.4483,0.0,0.0,0.0,0.0,0.0,0.0,0.0,0.0,0.0,0.0,0.0,0.0,0.0,0.0,0.0,0.0,0.0,0.0,0.0,3.8401,3.9269,4.0807,4.0971,4.1058,4.1198,4.1202,4.1202,4.1202,4.1976,4.2531,4.2842,4.2857,4.2857,4.2842,4.2868,4.3239,4.3902,4.5087,4.5912,4.657,4.7853,4.8463,4.8628,4.8704,4.9364,5.0268,5.0958,5.1944,5.3014,5.3832,5.4233,5.4559,5.5535,5.5986,5.639,5.7704,5.7784,5.7483,5.7967,5.8117,5.8305,5.9102,5.929,5.929,5.929,5.929,5.929,5.929,5.929,5.944,5.9966,6.0337,6.09,6.1876,6.2332,6.282,6.3688,6.4064,6.4294,6.4294,6.4294,6.4294,6.4294,6.4294,6.4309,6.4349,6.4443,6.4573,6.4815,6.5065,6.5252,6.5371,6.5413,6.5413,6.5413,6.5413,6.5413,6.5413,6.5413,6.5413,6.5413,6.5413,6.5413,2.9799,0.0,0.0,0.0,0.0,0.0,0.0,0.0,0.0,0.0,0.0,0.0,0.0,0.0,0.0,0.0,0.0,0.0,0.0,0.0,0.0,0.0,0.0,0.0,0.0,0.0,0.0,0.0,0.0,3.7675,3.9653,4.0031,4.0551,4.1347,4.1596,4.1705,4.1705,4.2492,4.2866,4.2818,4.2866,4.297,4.3144,4.322,4.3767,4.476,4.5628,4.6404,4.7159,4.7991,4.8415,4.8444,4.8396,4.9127,5.0352,5.0818,5.1805,5.2982,5.3656,5.4136,5.4672,5.6366,5.6319,5.5893,5.7587,5.7709,5.7338,5.7929,5.8267,5.8568,5.914,5.929,5.929,5.929,5.929,5.9365,5.9591,5.9666,5.9929,6.0755,6.1125,6.1651,6.2895,6.312,6.3383,6.4182,6.4294,6.4294,6.4294,6.4294,6.4294,6.4294,6.4294,6.4294,6.4294,6.4354,6.4463,6.4698,6.5036,6.5294,6.5375,6.5402,6.5413,6.5413,6.5413,6.5413,6.5413,6.5413,6.5413,6.5413,6.5413,6.5413,0.0,0.0,0.0,2.7339,0.0,0.0,0.0,0.0,2.5961,0.0,0.0,0.0,0.0,0.0,0.0,0.0,0.0,0.0,0.0,0.0,0.0,0.0,0.0,0.0,0.0,0.0,0.0,0.0,0.0,0.0,3.7911,3.8932,3.9767,4.0515,4.127,4.1705,4.1705,4.2421,4.2828,4.2887,4.2823,4.3226,4.4077,4.4046,4.4522,4.5324,4.6121,4.6488,4.6602,4.7399,4.7875,4.8094,4.7814,4.8863,5.0528,5.088,5.2003,5.343,5.3767,5.4136,5.4672,5.6366,5.6319,5.5893,5.7587,5.808,5.808,5.8075,5.8647,5.9253,5.929,5.929,5.929,5.929,5.929,5.9515,6.0374,6.0562,6.0787,6.1586,6.2444,6.3045,6.3083,6.312,6.3383,6.4182,6.4294,6.4294,6.4294,6.4294,6.4294,6.4294,6.4294,6.4294,6.4294,6.4299,6.4433,6.4698,6.4947,6.5172,6.5286,6.5368,6.5413,6.5413,6.5413,6.5413,6.5413,6.5413,6.5413,6.5413,6.5413,6.5413,0.0,0.0,3.2602,2.9175,0.0,0.0,0.0,0.0,0.0,0.0,0.0,0.0,0.0,0.0,0.0,0.0,0.0,0.0,0.0,0.0,0.0,0.0,0.0,0.0,0.0,0.0,0.0,0.0,3.235,0.0,0.0,3.8133,3.9441,4.1234,4.156,4.1963,4.2488,4.275,4.2895,4.2896,4.3433,4.3795,4.4118,4.4662,4.5345,4.61,4.639,4.6789,4.7332,4.7585,4.7757,4.7886,4.831,4.932,5.0566,5.0451,5.1678,5.3477,5.4031,5.4294,5.4592,5.5681,5.5823,5.5823,5.6958,5.7671,5.8117,5.8117,5.8685,5.929,5.929,5.929,5.929,5.929,5.929,5.9553,6.0412,6.06,6.1013,6.2407,6.2895,6.327,6.3801,6.3876,6.3994,6.4257,6.4294,6.4294,6.4294,6.4294,6.4294,6.4294,6.4294,6.4294,6.4294,6.4349,6.4683,6.5384,6.5715,6.6176,6.6785,6.6978,6.706,6.706,6.706,6.706,6.706,6.706,6.706,6.706,6.706,6.6449,3.284,3.3238,0.0,3.0466,2.9799,0.0,2.68,0.0,0.0,0.0,0.0,0.0,0.0,0.0,0.0,0.0,0.0,0.0,0.0,0.0,0.0,0.0,0.0,0.0,0.0,0.0,2.8906,3.0456,3.0741,0.0,0.0,0.0,3.8427,4.0809,4.113,4.1786,4.2892,4.2892,4.3036,4.3326,4.3865,4.4408,4.4988,4.549,4.6178,4.6933,4.6933,4.7223,4.7689,4.7689,4.787,4.8196,4.8697,4.9687,5.0836,5.0734,5.193,5.3629,5.4058,5.4473,5.4968,5.5789,5.6052,5.6282,5.7413,5.7934,5.8155,5.8455,5.891,5.929,5.929,5.929,5.9365,5.9703,5.9778,6.0074,6.1238,6.1501,6.1876,6.3275,6.3533,6.3688,6.4219,6.4294,6.4294,6.4294,6.4294,6.4294,6.4294,6.4294,6.4294,6.4294,6.4294,6.4407,6.4702,6.5061,6.5574,6.6237,6.6501,6.6931,6.7618,6.7805,6.7905,6.7905,6.7905,6.7905,6.7905,6.7905,6.7905,6.7905,6.7905,6.7332]},{"header":{"parameterUnit":"m.s-1","parameterCategory":1,"la1":30.6,"la2":29.2853,"lo1":-89.7004,"lo2":-87.6739,"dy":0.0162,"dx":0.0183,"nx":112,"ny":82,"refTime":"2026-03-15T00:00:00:Z","depth":0,"parameterNumber":3,"parameterNumberName":"V-component_of_WINDS"},"data":[0.0,0.0,0.0,0.0,0.0,0.0,0.0,0.0,0.0,0.0,0.0,0.0,0.0,0.0,0.0,0.0,0.0,0.0,0.0,0.0,0.0,0.0,0.0,0.0,0.0,0.0,0.0,0.0,0.0,0.0,0.0,0.0,0.0,0.0,0.0,0.0,0.0,0.0,0.0,0.0,0.0,0.0,0.0,0.0,0.0,0.0,0.0,0.0,0.0,0.0,0.0,0.0,0.0,0.0,0.0,0.0,0.0,0.0,0.0,0.0,0.0,0.0,0.0,0.0,0.0,0.0,0.0,0.0,0.0,0.0,0.0,0.0,0.0,0.0,0.0,0.0,0.0,0.0,0.0,0.0,0.0,0.0,0.0,0.0,0.0,0.0,0.0,0.0,0.0,0.0,0.0,0.3675,0.412,0.4401,0.4424,0.4349,0.4064,0.351,0.0,0.0,0.0,0.0,0.0,0.0,0.0,0.0,0.0,0.0,0.0,0.0,0.0,0.0,0.0,0.0,0.0,0.0,0.0,0.0,0.0,0.0,0.0,0.0,0.0,0.0,0.0,0.0,0.0,0.0,0.0,0.0,0.0,0.0,0.0,0.0,0.0,0.0,0.0,0.0,0.0,0.0,0.0,0.0,0.0,0.0,0.0,0.0,0.0,0.0,0.0,0.0,0.0,0.0,0.0,0.0,0.0,0.0,0.0,0.0,0.0,0.0,0.0,0.0,0.0,0.0,0.0,0.0,0.0,0.0,0.0,0.0,0.0,0.0,0.0,0.0,0.0,0.0,0.0,0.0,0.0,0.0,0.0,0.0,0.0,0.0,0.0,0.0,0.0,0.0,0.0,0.0,0.0,0.0,0.0,0.0,0.0,0.0,0.0,0.0,0.0,0.0,0.0,0.0,0.3405,0.4193,0.4301,0.4382,0.4557,0.4403,0.4167,0.3839,0.0,0.0,0.0,0.0,0.0,0.0,0.0,0.0,0.0,0.0,0.0,0.0,0.0,0.0,0.0,0.0,0.0,0.0,0.0,0.0,0.0,0.0,0.0,0.0,0.0,0.0,0.0,0.0,0.0,0.0,0.0,0.0,0.0,0.0,0.0,0.0,0.0,0.0,0.0,0.0,0.0,0.0,0.0,0.0,0.0,0.0,0.0,0.0,0.0,0.0,0.0,0.0,0.0,0.0,0.0,0.0,0.0,0.0,0.0,0.0,0.0,0.0,0.0,0.0,0.0,0.0,0.0,0.0,0.0,0.0,0.0,0.0,0.0,0.0,0.0,0.0,0.0,0.0,0.0,0.0,0.0,0.0,0.0,0.0,0.0,0.0,0.0,0.0,0.0,0.0,0.0,0.0,0.0,0.0,0.0,0.0,0.0,0.0,0.0,0.0,0.0,0.0,0.0,0.3321,0.3717,0.4331,0.4466,0.4582,0.4755,0.458,0.4361,0.4129,0.3736,0.0,0.0,0.0,0.0,0.0,0.0,0.0,0.0,0.0,0.0,0.0,0.0,0.0,0.0,0.0,0.0,0.0,0.0,0.0,0.0,0.0,0.0,0.0,0.0,0.0,0.0,0.0,0.0,0.0,0.0,0.0,0.0,0.0,0.0,0.0,0.0,0.0,0.0,0.0,0.0,0.0,0.0,0.0,0.0,0.0,0.0,0.0,0.0,0.0,0.0,0.0,0.0,0.0,0.0,0.0,0.0,0.0,0.0,0.0,0.0,0.0,0.0,0.0,0.0,0.0,0.0,0.0,0.0,0.0,0.0,0.0,0.0,0.0,0.0,0.0,0.0,0.0,0.0,0.0,0.0,0.0,0.0,0.0,0.0,0.0,0.0,0.0,0.0,0.0,0.0,0.0,0.0,0.0,0.0,0.0,0.0,0.0,0.0,0.0,0.0,0.0,0.0,0.3724,0.4039,0.4411,0.4598,0.4756,0.4893,0.4682,0.4484,0.4317,0.3865,0.0,0.0,0.0,0.0,0.0,0.0,0.0,0.0,0.0,0.0,0.0,0.0,0.0,0.0,0.0,0.0,0.0,0.0,0.0,0.0,0.0,0.0,0.0,0.0,0.0,0.0,0.0,0.0,0.0,0.0,0.0,0.0,0.0,0.0,0.0,0.0,0.0,0.0,0.0,0.0,0.0,0.0,0.0,0.0,0.0,0.0,0.0,0.0,0.0,0.0,0.0,0.0,0.0,0.0,0.0,0.0,0.0,0.0,0.0,0.0,0.0,0.0,0.0,0.0,0.0,0.0,0.0,0.0,0.0,0.0,0.0,0.0,0.0,0.0,0.0,0.0,0.0,0.0,0.0,0.0,0.0,0.0,0.0,0.0,0.0,0.0,0.0,0.0,0.0,0.0,0.0,0.0,0.0,0.0,0.0,0.0,0.0,0.0,0.0,0.0,0.0,0.0,0.3856,0.4273,0.4556,0.4651,0.4756,0.4893,0.4606,0.4378,0.4305,0.3861,0.0,0.0,0.0,0.0,0.0,0.0,0.0,0.0,0.0,0.0,0.0,0.0,0.0,0.0,0.0,0.0,0.0,0.0,0.0,0.0,0.0,0.0,0.0,0.0,0.0,0.0,0.0,0.0,0.0,0.0,0.0,0.0,0.0,0.0,0.0,0.0,0.0,0.0,0.0,0.0,0.0,0.0,0.0,0.0,0.0,0.0,0.0,0.0,0.0,0.0,0.0,0.0,0.0,0.0,0.0,0.0,0.0,0.0,0.0,0.0,0.0,0.0,0.0,0.0,0.0,0.0,0.0,0.0,0.0,0.0,0.0,0.0,0.0,0.0,0.0,0.0,0.0,0.0,0.0,0.0,0.0,0.0,0.0,0.0,0.0,0.0,0.0,0.0,0.0,0.0,0.0,0.0,0.0,0.0,0.0,0.0,0.0,0.0,0.0,0.0,0.0,0.0,0.3822,0.421,0.0,0.5181,0.5461,0.5171,0.5379,0.5265,0.4646,0.0,0.0,0.0,0.0,0.0,0.0,0.0,0.0,0.0,0.0,0.0,0.0,0.0,0.0,0.0,0.0,0.0,0.0,0.0,0.0,0.0,0.0,0.0,0.0,0.0,0.0,0.0,0.0,0.0,0.0,0.0,0.0,0.0,0.0,0.0,0.0,0.0,0.0,0.0,0.0,0.0,0.0,0.0,0.0,0.0,0.0,0.0,0.0,0.0,0.0,0.0,0.0,0.0,0.0,0.0,0.0,0.0,0.0,0.0,0.0,0.0,0.0,0.0,0.0,0.0,0.0,0.0,0.0,0.0,0.0,0.0,0.0,0.0,0.0,0.0,0.0,0.0,0.0,0.0,0.0,0.0,0.0,0.0,0.0,0.0,0.0,0.0,0.0,0.0,0.0,0.0,0.0,0.0,0.0,0.0,0.0,0.0,0.0,0.0,0.0,0.0,0.0,0.3434,0.3853,0.4256,0.0,0.5329,0.5698,0.5651,0.5873,0.5703,0.4976,0.0,0.0,0.0,0.0,0.0,0.0,0.0,0.0,0.0,0.0,0.0,0.0,0.0,0.0,0.0,0.0,0.0,0.0,0.0,0.0,0.0,0.0,0.0,0.0,0.0,0.0,0.0,0.0,0.0,0.0,0.0,0.0,0.0,0.0,0.0,0.0,0.0,0.0,0.0,0.0,0.0,0.0,0.0,0.0,0.0,0.0,0.0,0.0,0.0,0.0,0.0,0.0,0.0,0.0,0.0,0.0,0.0,0.0,0.0,0.0,0.0,0.0,0.0,0.0,0.0,0.0,0.0,0.0,0.0,0.0,0.0,0.0,0.0,0.0,0.0,0.0,0.0,0.0,0.0,0.0,0.0,0.0,0.0,0.0,0.0,0.0,0.0,0.0,0.0,0.0,0.0,0.0,0.0,0.0,0.0,0.0,0.0,0.0,0.0,0.0,0.0,0.0,0.3442,0.3969,0.4482,0.495,0.4944,0.531,0.6302,0.5914,0.5494,0.0,0.0,0.0,0.0,0.0,0.0,0.0,0.0,0.0,0.0,0.0,0.0,0.0,0.0,0.0,0.0,0.0,0.0,0.0,0.0,0.0,0.0,0.0,0.0,0.0,0.0,0.0,0.0,0.0,0.0,0.0,0.0,0.0,0.0,0.0,0.0,0.0,0.0,0.0,0.0,0.0,0.0,0.0,0.0,0.0,0.0,0.0,0.0,0.0,0.0,0.0,0.0,0.0,0.0,0.0,0.0,0.0,0.0,0.0,0.0,0.0,0.0,0.0,0.0,0.0,0.0,0.0,0.0,0.0,0.0,0.0,0.0,0.0,0.0,0.0,0.0,0.0,0.0,0.0,0.0,0.0,0.0,0.0,0.0,0.0,0.0,0.0,0.0,0.0,0.0,0.0,0.0,0.0,0.0,0.0,0.0,0.0,0.0,0.0,0.0,0.0,0.0,0.0,0.3442,0.3969,0.4403,0.4694,0.5299,0.566,0.5623,0.622,0.6205,0.5326,0.0,0.0,0.0,0.0,0.0,0.0,0.0,0.0,0.0,0.0,0.0,0.0,0.0,0.0,0.0,0.0,0.0,0.0,0.0,0.0,0.0,0.0,0.0,0.0,0.0,0.0,0.0,0.0,0.0,0.0,0.0,0.0,0.0,0.0,0.0,0.0,0.0,0.0,0.0,0.0,0.0,0.0,0.0,0.0,0.0,0.0,0.0,0.0,0.0,0.0,0.0,0.0,0.0,0.0,0.0,0.0,0.0,0.0,0.0,0.0,0.0,0.0,0.0,0.0,0.0,0.0,0.0,0.0,0.0,0.0,0.0,0.0,0.0,0.0,0.0,0.0,0.0,0.0,0.0,0.0,0.0,0.0,0.0,0.0,0.0,0.0,0.0,0.0,0.0,0.0,0.0,0.0,0.0,0.0,0.0,0.0,0.0,0.0,0.0,0.0,0.0,0.0,0.3438,0.395,0.4388,0.4726,0.5214,0.5584,0.5724,0.6239,0.6208,0.5388,0.0,0.0,0.0,0.0,0.0,0.0,0.0,0.0,0.0,0.0,0.0,0.0,0.0,0.0,0.0,0.0,0.0,0.0,0.0,0.0,0.0,0.0,0.0,0.0,0.0,0.0,0.0,0.0,0.0,0.0,0.0,0.0,0.0,0.0,0.0,0.0,0.0,0.0,0.0,0.0,0.0,0.0,0.0,0.0,0.0,0.0,0.0,0.0,0.0,0.0,0.0,0.0,0.0,0.0,0.0,0.0,0.0,0.0,0.0,0.0,0.0,0.0,0.0,0.0,0.0,0.0,0.0,0.0,0.0,0.0,0.0,0.0,0.0,0.0,0.0,0.0,0.0,0.0,0.0,0.0,0.0,0.0,0.0,0.0,0.0,0.0,0.0,0.0,0.0,0.0,0.0,0.0,0.0,0.0,0.0,0.0,0.0,0.0,0.0,0.0,0.0,0.0,0.343,0.3926,0.4452,0.5042,0.5004,0.5363,0.6444,0.6206,0.5861,0.5535,0.0,0.0,0.0,0.0,0.0,0.0,0.0,0.0,0.0,0.0,0.0,0.0,0.0,0.0,0.0,0.0,0.0,0.0,0.0,0.0,0.0,0.0,0.0,0.0,0.0,0.0,0.0,0.0,0.0,0.0,0.0,0.0,0.0,0.0,0.0,0.0,0.0,0.0,0.0,0.0,0.0,0.0,0.0,0.0,0.0,0.0,0.0,0.0,0.0,0.0,0.0,0.0,0.0,0.0,0.0,0.0,0.0,0.0,0.0,0.0,0.4076,0.0,0.0,0.0,0.0,0.0,0.0,0.0,0.0,0.0,0.0,0.0,0.0,0.0,0.0,0.0,0.0,0.0,0.0,0.0,0.0,0.0,0.0,0.0,0.0,0.0,0.0,0.0,0.0,0.0,0.0,0.0,0.0,0.0,0.0,0.0,0.0,0.0,0.0,0.0,0.0,0.0,0.3438,0.4053,0.482,0.5835,0.5923,0.6363,0.7481,0.7078,0.667,0.644,0.0,0.0,0.0,0.0,0.0,0.0,0.0,0.0,0.0,0.0,0.0,0.0,0.0,0.0,0.0,0.0,0.0,0.0,0.0,0.0,0.0,0.0,0.0,0.0,0.0,0.0,0.0,0.0,0.0,0.0,0.0,0.0,0.0,0.0,0.0,0.0,0.0,0.0,0.0,0.0,0.0,0.0,0.0,0.0,0.0,0.0,0.0,0.0,0.0,0.0,0.0,0.0,0.0,0.0,0.0,0.0,0.0,0.0,0.0,0.0,0.0,0.475,0.0,0.0,0.0,0.0,0.0,0.0,0.0,0.0,0.0,0.0,0.0,0.0,0.0,0.0,0.0,0.0,0.0,0.0,0.0,0.0,0.0,0.0,0.0,0.0,0.0,0.0,0.0,0.0,0.0,0.0,0.0,0.0,0.0,0.0,0.0,0.0,0.0,0.0,0.0,0.0,0.3494,0.4302,0.5132,0.5924,0.6378,0.6989,0.7869,0.7578,0.7265,0.7097,0.6531,0.0,0.0,0.0,0.0,0.0,0.0,0.0,0.0,0.0,0.0,0.0,0.0,0.0,0.0,0.0,0.0,0.0,0.0,0.0,0.0,0.0,0.0,0.0,0.0,0.0,0.0,0.0,0.0,0.0,0.0,0.0,0.0,0.0,0.0,0.0,0.0,0.0,0.0,0.0,0.0,0.0,0.0,0.0,0.0,0.0,0.0,0.0,0.0,0.0,0.0,0.0,0.0,0.0,0.9059,0.8458,0.8056,0.7276,0.7071,0.728,0.6286,0.5859,0.5896,0.0,0.0,0.0,0.0,0.0,0.0,0.0,0.0,0.0,0.0,0.0,0.0,0.0,0.0,0.0,0.0,0.0,0.0,0.0,0.0,0.0,0.0,0.0,0.0,0.0,0.3267,0.3279,0.0,0.0,0.0,0.0,0.0,0.0,0.0,0.0,0.0,0.0,0.0,0.0,0.3742,0.4665,0.5512,0.6145,0.6893,0.7634,0.8344,0.812,0.7916,0.7833,0.747,0.6794,0.0,0.0,0.0,0.0,0.0,0.0,0.0,0.0,0.0,0.0,0.0,0.0,0.0,0.0,0.0,0.0,0.0,0.0,0.0,0.0,0.0,0.0,0.0,0.0,0.0,0.0,0.0,0.0,0.0,0.0,0.0,0.0,0.4303,0.4793,0.0,0.0,0.0,0.0,0.0,0.0,0.0,0.0,0.0,0.0,0.0,0.0,0.0,0.5691,0.4776,0.7369,0.9092,0.9898,0.9765,0.9257,0.8409,0.7729,0.8172,0.9485,0.9324,0.0,0.6257,0.7599,0.0,0.0,0.0,0.0,0.0,0.0,0.0,0.0,0.0,0.0,0.0,0.0,0.0,0.0,0.0,0.0,0.0,0.0,0.0,0.0,0.0,0.0,0.3485,0.3442,0.3502,0.353,0.0,0.314,0.2883,0.2679,0.2591,0.0,0.0,0.0,0.0,0.0,0.0,0.0,0.4514,0.5172,0.6145,0.7711,0.8138,0.8772,0.9896,0.9332,0.8979,0.9135,0.8085,0.746,0.7474,0.6161,0.0,0.0,0.0,0.0,0.0,0.0,0.0,0.0,0.0,0.0,0.0,0.0,0.0,0.0,0.0,0.0,0.0,0.0,0.0,0.0,0.0,0.0,0.0,0.0,0.0,0.0,0.0,0.0,0.0,0.4476,0.4881,0.5371,0.5334,0.5265,0.0,0.0,0.0,0.0,0.0,0.0,0.0,0.0,0.0,0.7087,0.7401,0.7638,0.7747,0.8775,0.9489,0.9898,0.9898,0.9683,0.9276,0.8982,0.9228,0.9898,0.9898,0.9309,0.8342,0.846,0.8261,0.7817,0.0,0.0,0.0,0.0,0.6764,0.8158,0.8541,0.8388,0.0,0.7313,0.0,0.0,0.0,0.0,0.0,0.0,0.0,0.0,0.0,0.0,0.372,0.3765,0.3893,0.3954,0.381,0.3725,0.356,0.0,0.3103,0.2996,0.2639,0.0,0.0,0.0,0.0,0.0,0.5048,0.6129,0.7224,0.8253,0.8956,0.9662,1.0458,1.0204,1.0039,1.0133,0.9366,0.8757,0.8435,0.7562,0.6636,0.0,0.0,0.0,0.0,0.0,0.0,0.0,0.0,0.0,0.0,0.0,0.0,0.0,0.0,0.0,0.0,0.0,0.0,0.0,0.0,0.0,0.0,0.0,0.0,0.0,0.0,0.0,0.0,0.5103,0.5411,0.5895,0.6019,0.6036,0.0,0.0,0.0,0.0,0.0,0.0,0.7154,0.7791,0.8261,0.8482,0.8608,0.9188,1.0242,1.0038,0.993,0.993,0.993,0.993,0.993,0.993,1.0048,1.0253,1.0253,1.0223,1.0115,0.9249,0.8871,0.8823,0.8476,0.7698,0.6835,0.7332,0.8159,0.9085,0.9476,0.949,0.9234,0.8628,0.0,0.7043,0.5397,0.0,0.0,0.0,0.0,0.3365,0.3635,0.3771,0.3877,0.397,0.4142,0.4226,0.4039,0.4113,0.4088,0.0,0.3566,0.3475,0.3055,0.0,0.0,0.0,0.0,0.5,0.5631,0.7043,0.8211,0.8819,0.9664,1.0343,1.0738,1.0774,1.0801,1.0847,1.0409,0.9918,0.9386,0.8824,0.7796,0.6237,0.0,0.0,0.0,0.0,0.0,0.0,0.0,0.0,0.0,0.0,0.0,0.0,0.0,0.0,0.0,0.0,0.0,0.0,0.0,0.0,0.0,0.0,0.0,0.0,0.0,0.0,0.0,0.0,0.0,0.6584,0.6874,0.0,0.0,0.0,0.0,0.7055,0.7703,0.8192,0.8393,0.8864,0.9337,0.979,0.9391,0.9833,1.1219,1.0413,0.9993,0.9993,0.9993,0.9993,0.9993,0.9993,1.0456,1.123,1.123,1.1015,1.0636,1.0126,0.9887,0.9833,0.9801,0.9747,0.9693,0.9727,1.0061,1.044,1.0019,1.0035,1.0202,0.9977,0.8671,0.6886,0.5152,0.4315,0.0,0.0,0.397,0.3883,0.3958,0.3987,0.3995,0.4003,0.4108,0.4163,0.4027,0.4151,0.421,0.0,0.3875,0.3789,0.3516,0.0,0.3575,0.3569,0.4384,0.5364,0.6405,0.7665,0.8841,0.9829,1.0377,1.0746,1.0969,1.0975,1.1068,1.1262,1.0834,1.0571,1.0606,0.9488,0.8215,0.6787,0.5662,0.0,0.0,0.0,0.0,0.0,0.0,0.0,0.0,0.0,0.0,0.0,0.0,0.0,0.0,0.0,0.0,0.0,0.0,0.0,0.0,0.0,0.0,0.0,0.0,0.0,0.0,0.0,0.0,0.7562,0.7749,0.0,0.0,0.8111,0.821,0.8431,0.8687,0.8954,0.9193,0.9647,0.9981,1.0144,1.0259,1.0476,1.0844,1.0835,1.084,1.084,1.084,1.084,1.085,1.0796,1.1318,1.2254,1.1953,1.1663,1.1393,1.1234,1.0863,1.044,1.0698,1.0801,1.0801,1.0801,1.0908,1.1005,1.0657,1.0612,1.0609,1.0151,0.8965,0.7557,0.667,0.5611,0.4684,0.4529,0.4361,0.4216,0.4197,0.4195,0.4223,0.4353,0.4417,0.4445,0.4401,0.4442,0.447,0.4371,0.4215,0.402,0.3793,0.381,0.4047,0.4609,0.5601,0.6718,0.7926,0.9122,1.0049,1.0587,1.0941,1.1175,1.1246,1.1263,1.1206,1.1112,1.095,1.0865,1.0888,1.0076,0.8845,0.7217,0.6241,0.4766,0.0,0.0,0.0,0.0,0.0,0.0,0.0,0.0,0.0,0.0,0.0,0.0,0.0,0.0,0.0,0.0,0.0,0.0,0.0,0.0,0.0,0.0,0.0,0.0,0.0,0.0,0.7408,0.8121,0.8479,0.8754,0.8984,0.9074,0.9229,0.955,0.9638,0.9746,0.9927,1.0325,1.0573,1.0638,1.1014,1.1133,1.1015,1.1381,1.166,1.1811,1.1811,1.1811,1.1799,1.1755,1.2029,1.2519,1.2271,1.2074,1.1908,1.1908,1.1609,1.1189,1.129,1.1528,1.18,1.1639,1.1596,1.1617,1.1381,1.1241,1.1059,1.0394,0.9502,0.8596,0.801,0.6805,0.5615,0.5475,0.5109,0.47,0.4571,0.4537,0.4548,0.4592,0.4597,0.4597,0.4597,0.4597,0.4632,0.4711,0.4518,0.4303,0.4214,0.4426,0.4756,0.5199,0.6525,0.7783,0.8626,0.996,1.097,1.132,1.1587,1.1713,1.1641,1.1546,1.1389,1.1123,1.095,1.0917,1.1003,1.042,0.9222,0.7366,0.592,0.4424,0.2866,0.0,0.0,0.0,0.0,0.0,0.0,0.0,0.0,0.0,0.0,0.0,0.0,0.0,0.0,0.0,0.0,0.0,0.0,0.0,0.0,0.0,0.0,0.0,0.6751,0.7479,0.8082,0.8236,0.9057,0.9516,0.9281,0.9895,1.0304,1.0325,1.0499,1.0618,1.0619,1.0875,1.1112,1.1327,1.1639,1.1811,1.1811,1.2018,1.2343,1.2795,1.2795,1.2795,1.2795,1.2783,1.2504,1.2033,1.2222,1.2232,1.2116,1.2116,1.2116,1.2082,1.1615,1.1978,1.272,1.2267,1.2179,1.2274,1.2137,1.1922,1.1582,1.079,1.0351,0.9946,0.9024,0.7803,0.6758,0.6871,0.6184,0.5351,0.5078,0.5007,0.4941,0.4676,0.4617,0.4617,0.4605,0.4617,0.47,0.4957,0.4791,0.4659,0.4794,0.5365,0.5688,0.5304,0.7048,0.0,0.8438,1.0109,1.1493,1.2035,1.2283,1.2328,1.2115,1.1855,1.1596,1.1305,1.0866,1.0725,1.0982,1.0541,0.9311,0.7223,0.4719,0.3297,0.3015,0.0,0.0,0.0,0.0,0.0,0.0,0.0,0.0,0.0,0.0,0.0,0.0,0.0,0.0,0.0,0.0,0.0,0.0,0.0,0.0,0.0,0.0,0.7793,0.7793,0.8117,0.8626,0.9346,0.966,1.0003,1.0465,1.0509,1.0606,1.0788,1.0864,1.0951,1.1102,1.1359,1.1618,1.1866,1.1975,1.206,1.2155,1.2221,1.2438,1.2795,1.2795,1.2795,1.2783,1.2504,1.2443,1.2577,1.2432,1.2464,1.2613,1.2613,1.2613,1.2569,1.2088,1.2068,1.2278,1.2149,1.2127,1.2124,1.1887,1.1888,1.1923,1.1517,1.0961,1.039,0.9977,0.8721,0.7389,0.7235,0.6426,0.5578,0.541,0.5224,0.5072,0.5044,0.5037,0.4988,0.4786,0.4901,0.5062,0.5136,0.5086,0.5083,0.5211,0.5709,0.6149,0.6333,0.7479,0.0,0.9263,1.0277,1.1216,1.195,1.2421,1.2516,1.207,1.1999,1.1648,1.0847,1.0857,1.0842,1.0714,1.0252,0.8966,0.6737,0.5147,0.3992,0.0,0.0,0.0,0.0,0.0,0.0,0.0,0.0,0.0,0.0,0.0,0.0,0.0,0.0,0.0,0.0,0.0,0.0,0.0,0.0,0.0,0.0,0.7946,0.8465,0.8854,0.9012,0.9285,0.9833,1.0176,1.053,1.096,1.094,1.1005,1.1262,1.1295,1.1392,1.1617,1.178,1.1974,1.2222,1.2234,1.2319,1.2514,1.2502,1.2642,1.2934,1.2942,1.2964,1.2951,1.2868,1.2959,0.0,1.2956,1.2949,1.3085,1.3085,1.3021,0.0,0.0,0.0,0.0,0.0,1.2397,1.2373,1.2221,1.2268,1.2373,1.2221,1.1787,1.1328,1.1222,1.0073,0.8805,0.8642,0.7586,0.6452,0.6256,0.5847,0.5454,0.5389,0.5278,0.5152,0.5002,0.509,0.5228,0.5353,0.5365,0.0,0.5771,0.617,0.6496,0.6611,0.7902,0.9,0.9437,1.0544,1.1519,1.2115,1.2553,1.2637,1.2199,1.211,0.0,0.0,0.0,1.0836,1.0486,0.9511,0.0,0.0,0.0,0.0,0.0,0.0,0.0,0.0,0.3189,0.3181,0.0,0.0,0.0,0.0,0.0,0.0,0.0,0.0,0.0,0.0,0.0,0.0,0.0,0.0,0.0,0.0,0.8608,0.8943,0.9751,0.9935,0.9998,1.0016,1.0595,1.1025,1.1068,1.1241,1.1445,1.1681,1.1725,1.1855,1.207,0.0,0.0,0.0,0.0,1.2565,1.2826,1.2826,1.2945,1.3147,1.3208,1.3227,1.3238,1.3543,1.3685,1.3674,1.3547,1.3506,1.3506,1.3506,1.3364,1.3125,1.2891,1.2839,1.287,1.2813,1.2836,1.287,1.2845,0.0,0.0,1.2882,1.2723,1.2527,1.2527,1.1609,1.0573,1.0573,0.9263,0.7779,0.7391,0.6732,0.6065,0.5725,0.546,0.5284,0.5284,0.5313,0.541,0.5645,0.5695,0.5846,0.6362,0.6671,0.678,0.6562,0.8249,0.9496,0.9357,1.0858,1.2066,1.24,0.0,0.0,1.2464,1.2195,1.1951,1.1712,1.1279,1.0803,1.0316,0.8716,0.7884,0.798,0.5704,0.4683,0.5005,0.4358,0.4039,0.4035,0.3541,0.3445,0.0,0.0,0.0,0.0,0.0,0.0,0.0,0.0,0.0,0.0,0.0,0.0,0.0,0.0,0.0,0.8757,0.9281,0.9638,0.965,1.0114,1.0542,1.0757,1.0907,1.1144,1.1521,1.1607,1.1636,1.17,1.1904,1.2022,1.2023,1.2222,0.0,1.2708,1.2719,1.2826,1.3039,1.3039,1.317,1.3418,0.0,0.0,1.3437,1.3504,1.3536,1.3536,1.3504,1.3506,1.3506,1.3506,1.3474,1.3375,1.2956,1.3021,1.3319,1.2877,1.2993,1.3328,1.3125,1.3188,1.3366,1.3366,1.3328,1.329,1.329,1.2493,0.0,1.1604,1.0566,0.9212,0.8189,0.7488,0.6863,0.6103,0.588,0.5841,0.5841,0.6011,0.6176,0.6229,0.6242,0.6346,0.6665,0.6937,0.7173,0.7347,0.8415,0.9431,1.0085,1.1004,1.1878,1.2565,1.3084,1.318,1.2676,1.2449,1.2145,1.1731,1.1411,1.0923,1.0247,0.9269,0.8287,0.7316,0.597,0.501,0.4456,0.4313,0.4276,0.4319,0.4104,0.4039,0.0,0.0,0.0,0.0,0.0,0.0,0.0,0.0,0.0,0.0,0.0,0.7871,0.0,0.0,0.9171,0.9536,0.9769,0.9942,1.0085,1.0388,1.0648,1.0784,1.1038,1.1326,1.166,1.1812,1.1939,1.2036,1.2173,1.2292,1.2396,1.2527,1.2706,1.2944,1.2944,1.3062,1.3299,1.3299,1.3429,1.3653,1.3653,1.3717,1.3849,1.3849,1.3849,1.3849,1.3849,1.3849,1.3838,1.372,1.3728,1.3806,1.3333,1.329,1.3472,1.3201,1.3271,1.348,1.3352,1.3391,1.3506,1.3506,1.3506,1.3506,1.3506,1.3033,1.2496,1.2496,1.1622,1.0534,0.9797,0.9106,0.8334,0.729,0.6954,0.673,0.6294,0.6307,0.64,0.64,0.6505,0.6643,0.6775,0.7269,0.7699,0.7827,0.8733,0.973,1.0627,1.1655,1.2456,1.2854,1.3265,1.3388,1.312,1.2897,1.259,1.2215,1.1985,1.1646,1.1173,0.9664,0.8602,0.8057,0.6171,0.5113,0.4947,0.4618,0.4504,0.4598,0.4533,0.4466,0.0,0.0,0.0,0.0,0.0,0.0,0.0,0.0,0.7103,0.7508,0.8183,0.8797,0.904,0.9439,0.9863,1.0225,1.0132,1.017,1.0553,1.0605,1.0626,1.0668,1.1141,1.1536,1.1758,1.2018,1.2232,1.2397,1.2443,1.2553,1.2712,1.2802,1.2922,1.308,1.3147,1.3297,1.3558,1.3558,1.3676,1.3876,1.3876,1.3984,1.4191,1.4191,1.4191,1.4191,1.4191,1.4191,1.418,1.3976,1.4008,1.4159,1.3784,1.3646,1.3623,1.3579,1.359,1.3646,1.3646,1.3646,1.3646,1.3646,1.3646,1.3646,1.3646,1.3491,1.3309,1.3309,1.2483,1.1486,1.1041,1.0228,0.9248,0.8097,0.7659,0.7332,0.6693,0.656,0.656,0.656,0.6733,0.6938,0.7098,0.7718,0.821,0.8321,0.9306,1.0367,1.1269,1.2459,1.3223,1.3223,1.3485,1.3586,1.3481,1.3294,1.3041,1.2727,1.2604,1.2391,1.2054,0.9919,0.8755,0.8798,0.6257,0.5131,0.5506,0.4966,0.4749,0.4862,0.4862,0.4797,0.6792,0.6231,0.0,0.603,0.621,0.665,0.0,0.0,0.8276,0.9146,0.9407,0.9538,0.9746,1.0024,1.0226,1.021,1.0388,1.0532,1.0596,1.0659,1.0757,1.0929,1.1378,1.1768,1.204,1.2243,1.2373,1.2403,1.2618,1.2665,1.2455,1.2842,1.3082,1.3104,1.3332,1.3558,1.3769,1.3769,1.3911,1.4161,1.4161,1.4169,1.4191,1.4191,1.4191,1.4191,1.4191,1.4191,1.4204,1.4172,1.4169,1.4191,1.4137,1.4116,1.4083,1.3855,1.3922,1.4116,1.4116,1.4116,1.4116,1.4116,1.4116,1.4116,1.4116,1.4102,1.4075,1.4075,1.3059,1.1688,1.0593,0.9256,0.7987,0.7075,0.684,0.6868,0.7075,0.7116,0.7116,0.7116,0.713,0.7406,0.8178,0.8398,0.8621,0.9091,1.0335,1.1507,1.2332,1.3124,1.3658,1.3711,1.3949,1.3925,1.3449,1.3437,1.3245,1.2733,1.2899,1.2664,1.1862,0.994,0.8635,0.8118,0.6114,0.5099,0.5151,0.5086,0.5046,0.5066,0.5066,0.5054,0.7204,0.0,0.0,0.0,0.718,0.7674,0.8533,0.8876,0.9208,0.9871,1.0217,1.0389,1.0327,1.0618,1.0834,0.0,1.0753,1.0824,1.083,1.0986,1.1083,1.1013,1.156,1.1975,1.2083,1.2286,1.2464,1.2627,1.2735,1.2799,1.2805,1.2988,1.3233,1.35,1.362,1.3793,1.404,1.4027,1.4094,1.4191,1.4191,1.4191,1.4191,1.4191,1.4191,1.4191,1.4191,1.4191,1.4191,1.4191,1.4191,1.4191,1.4191,1.4191,1.4194,1.4073,1.4105,1.4191,1.4191,1.4191,1.4191,1.4191,1.4191,1.4191,1.4191,1.4191,1.4191,1.4191,1.3626,1.2844,1.2182,1.1432,1.0576,0.9512,0.9264,0.9154,0.8796,0.8713,0.8713,0.8713,0.8713,0.8837,0.9196,0.9843,1.0372,1.0606,1.1272,1.2105,1.3108,1.3674,1.4,1.4038,1.4126,1.4108,1.388,1.389,1.381,1.3585,1.3538,1.3271,1.2751,1.0406,0.8942,0.8531,0.6263,0.5095,0.5095,0.5095,0.5123,0.5159,0.5159,0.5216,0.733,0.0,0.0,0.7561,0.802,0.8592,0.907,0.9493,0.9935,1.04,1.0702,1.0843,1.0736,1.0994,0.0,1.1016,1.1005,1.1023,1.1064,1.1202,1.1235,1.1099,1.155,1.1909,1.1975,1.2243,1.2511,1.2785,1.2848,1.2956,1.3093,1.322,1.3446,1.379,1.3876,1.3995,1.4204,1.4191,1.4191,1.4191,1.4191,1.4191,1.4191,1.4191,1.4191,1.4191,1.4191,1.4191,1.4191,1.4191,1.4191,1.4191,1.4191,1.4191,1.4191,1.4191,1.4191,1.4191,1.4191,1.4191,1.4191,1.4191,1.4191,1.4191,1.4191,1.4191,1.4191,1.4191,1.3789,1.3291,1.3102,1.2667,1.2069,1.12,1.0989,1.0817,1.0178,1.0055,1.0055,1.0055,1.0055,1.0123,1.037,1.1132,1.1823,1.2123,1.2332,1.2766,1.3586,1.3988,1.4191,1.4191,1.4191,1.4191,1.4191,1.4191,1.4191,1.4191,1.4029,1.375,1.3381,1.0904,0.9336,0.8899,0.6527,0.5262,0.5186,0.5186,0.5217,0.5289,0.5289,0.537,0.0,0.0,0.7819,0.7945,0.8583,0.9294,0.9758,1.0079,1.0411,1.0874,1.0789,1.0693,1.0939,1.0993,1.1005,1.1004,1.1003,1.1075,1.1262,1.1127,1.1078,1.1262,1.1305,1.1423,0.0,1.2123,1.2511,1.2785,1.2976,1.3093,1.3104,1.3532,1.379,1.3801,1.4051,1.4191,1.4191,1.4191,1.4191,1.4191,1.4191,1.4191,1.4191,1.4191,1.4191,1.4191,1.4191,1.4191,1.4191,1.4191,1.4191,1.4191,1.4191,1.4191,1.4191,1.4191,1.4191,1.4191,1.4191,1.4191,1.4191,1.4191,1.4191,1.4191,1.4191,1.4191,1.4191,1.4191,1.3346,1.2445,1.2431,1.1601,1.0754,1.0713,1.0713,1.0699,1.0685,1.0672,1.0672,1.0672,1.0672,1.0945,1.1792,1.1955,1.2359,1.3478,1.364,1.3653,1.3694,1.3988,1.4191,1.4191,1.4191,1.4191,1.4191,1.4191,1.4191,1.4191,1.4191,1.3924,1.3332,1.1292,0.9771,0.892,0.6847,0.5648,0.5387,0.5387,0.5432,0.5486,0.5486,0.5535,0.0,0.0,0.8619,0.8976,0.9362,0.9832,1.0476,1.0702,1.081,1.0971,1.0928,1.0842,1.0747,1.0875,1.1004,1.0995,1.1251,1.1485,1.156,1.1625,1.1645,1.1562,1.1685,0.0,0.0,0.0,0.0,1.2511,1.2888,1.3179,1.3353,1.364,1.3887,1.4062,1.4148,1.4191,1.4191,1.4191,1.4191,1.4191,1.4191,1.4191,1.4191,1.4191,1.4191,1.4191,1.4191,1.4191,1.4191,1.4191,1.4191,1.4191,1.4191,1.4191,1.4191,1.4191,1.4191,1.4191,1.4191,1.4191,1.4191,1.4191,1.4191,1.4191,1.4191,1.4191,1.4191,1.4191,1.389,1.3531,1.3531,1.3212,1.2894,1.2894,1.2894,1.2894,1.2894,1.278,1.269,1.269,1.2549,1.2518,1.2817,1.3007,1.3332,1.3948,1.4029,1.4029,1.4029,1.4123,1.4191,1.4191,1.4317,1.435,1.4213,1.4317,1.4339,1.4215,1.4191,1.4015,1.3572,1.1224,0.9683,0.9175,0.6813,0.5562,0.5467,0.551,0.554,0.5569,0.5569,0.5632,0.0,0.866,0.9264,0.973,1.0067,1.0391,1.0778,1.0928,1.095,1.0777,1.0745,1.067,1.0403,1.0488,1.0692,1.096,1.1252,1.1542,1.1812,1.1953,1.1947,1.173,1.1969,0.0,0.0,0.0,0.0,1.2391,1.2925,1.3321,1.3495,1.3782,1.4016,1.4191,1.4191,1.4191,1.4191,1.4191,1.4191,1.4191,1.4191,1.4191,1.4191,1.4191,1.4191,1.4191,1.4191,1.4191,1.4191,1.4191,1.4191,1.4191,1.4191,1.4191,1.4191,1.4191,1.4191,1.4191,1.4191,1.4191,1.4191,1.4191,1.4191,1.4191,1.4191,1.4191,1.4213,1.4299,1.428,1.428,1.4354,1.435,1.4323,1.4323,1.4323,1.4323,1.4323,1.4213,1.4124,1.4124,1.3996,1.3864,1.3864,1.4002,1.4205,1.4425,1.4452,1.442,1.4317,1.432,1.4339,1.4442,1.4568,1.4586,1.4463,1.4579,1.4586,1.4463,1.4452,1.4356,1.415,1.1554,0.9972,0.9657,0.7065,0.5658,0.5543,0.5585,0.563,0.5677,0.5677,0.5726,0.8777,0.9286,0.9763,1.0228,1.0659,1.0917,1.0682,1.08,1.0831,1.0369,1.0261,1.0164,0.0,0.0,1.0113,1.0811,1.0993,1.1284,1.1986,1.2104,1.2023,0.0,0.0,0.0,0.0,0.0,0.0,1.245,0.0,1.3493,1.3504,1.3957,1.4191,1.4191,1.4191,1.4191,1.4191,1.4191,1.4191,1.4191,1.4191,1.4191,1.4191,1.4191,1.4191,1.4191,1.4191,1.4191,1.4191,1.4191,1.4191,1.4191,1.4191,1.4191,1.4191,1.4213,1.4226,1.4213,1.4223,1.4213,1.4191,1.4191,1.4191,1.4202,1.4213,1.4226,1.4256,1.4465,1.4529,1.4594,1.4848,1.4927,1.4937,1.4937,1.4927,1.4916,1.4916,1.4894,1.4883,1.4883,1.4873,1.4862,1.4862,1.4862,1.4862,1.4862,1.4862,1.4772,1.4551,1.4529,1.4619,1.4873,1.4905,1.4916,1.4894,1.4905,1.4916,1.4894,1.4894,1.4894,1.4894,1.2175,1.0559,1.0292,0.7528,0.5934,0.5607,0.5611,0.5689,0.5805,0.5805,0.5835,0.9408,0.9873,1.0413,1.0745,1.0757,1.0746,1.0864,1.0681,1.0389,1.0068,0.9724,0.941,0.0,0.0,0.0,0.992,1.0846,0.0,1.1778,1.2103,0.0,0.0,0.0,1.2371,1.2299,1.2743,0.0,0.0,1.3277,1.3569,1.3728,1.4029,1.4191,1.4191,1.4191,1.4191,1.4191,1.4191,1.4191,1.4191,1.4191,1.4191,1.4191,1.4191,1.4191,1.4191,1.4191,1.4191,1.4191,1.4191,1.4191,1.4191,1.4191,1.4191,1.4213,1.4371,1.4422,1.4443,1.4643,1.4495,1.4191,1.4191,1.4191,1.4223,1.4382,1.4422,1.4479,1.4729,1.4909,1.5042,1.511,1.5275,1.5418,1.5418,1.5264,1.5117,1.5117,1.4852,1.4594,1.4594,1.4482,1.4388,1.4388,1.4388,1.4388,1.4388,1.4388,1.4485,1.4762,1.4794,1.4815,1.4894,1.5038,1.5056,1.4916,1.5038,1.506,1.4905,1.4894,1.4894,1.4894,1.1994,1.0372,1.0292,0.7383,0.5834,0.5745,0.5799,0.5844,0.5884,0.5884,0.5881,0.9997,1.0402,1.0822,1.1069,1.095,1.0735,1.0562,1.0249,0.9829,0.9268,0.8943,0.0,0.0,0.0,0.0,0.0,0.0,0.0,1.1917,1.2152,1.2298,0.0,1.2683,0.0,1.2723,1.3124,1.3459,0.0,1.3607,1.3685,1.3788,1.4048,1.4191,1.4191,1.4191,1.4191,1.4191,1.4191,1.4191,1.4191,1.4191,1.4191,1.4191,1.4191,1.4191,1.4191,0.0,1.4191,1.4191,1.4191,1.4191,1.4191,1.4191,1.4256,1.435,1.4454,1.4572,1.4708,1.4851,1.4733,1.4506,1.4506,1.4506,1.4539,1.464,1.4672,1.4726,1.4963,1.511,1.5235,1.5346,1.549,1.5569,1.5458,1.5314,1.5203,1.5203,1.4999,1.4838,1.4959,1.4887,1.4815,1.4815,1.4815,1.4815,1.4815,1.4815,1.4902,1.516,1.4923,1.4772,1.4883,1.5077,1.5149,1.5038,1.5239,1.5328,1.5203,1.5218,1.5218,1.5218,1.2188,1.0524,1.0524,0.744,0.5839,0.5839,0.5877,0.5906,0.5947,0.5947,0.5983,1.0529,1.0843,1.1079,1.1262,1.1123,1.0756,1.0059,0.969,0.9254,0.8381,0.0,0.0,0.7795,0.0,0.8748,0.9624,0.0,1.0795,1.2071,1.2192,1.2203,1.2375,1.302,1.3361,1.3162,1.3555,1.3909,1.4169,1.3984,1.3855,1.3855,1.4073,1.4191,1.4191,1.4191,1.4191,1.4191,1.4191,1.4191,1.4191,1.4191,1.4191,1.4191,1.4191,1.4191,1.4191,0.0,0.0,1.4191,1.4191,1.4191,1.4191,1.4191,1.4317,1.4494,1.454,1.4715,1.4934,1.498,1.4991,1.498,1.4916,1.4894,1.4905,1.4937,1.4948,1.4977,1.5181,1.5256,1.5314,1.5548,1.5601,1.5548,1.5314,1.5235,1.5203,1.5203,1.5181,1.5228,1.5461,1.5505,1.5505,1.5505,1.5505,1.5505,1.5505,1.5505,1.5505,1.5505,1.5006,1.4737,1.497,1.5156,1.5256,1.5256,1.5468,1.5601,1.5601,1.5601,1.5498,1.5294,1.2395,1.0703,1.0469,0.7464,0.5901,0.5901,0.5901,0.5926,0.5988,0.6,0.606,1.0906,1.109,1.1262,1.1284,1.0973,1.0532,1.0016,0.9441,0.0,0.0,0.0,0.7523,0.7473,0.7892,0.0,0.8978,0.0,0.0,0.0,0.0,1.2358,0.0,0.0,0.0,0.0,0.0,0.0,0.0,0.0,1.4126,1.4126,1.4169,1.4191,1.4191,1.4191,1.4191,1.4191,1.4191,1.4191,1.4191,1.4191,1.4191,1.4191,1.4191,1.4191,1.4191,1.4191,0.0,1.4191,1.4191,1.4191,1.4191,1.4191,1.4317,1.4529,1.4751,1.4963,1.5185,1.5393,1.5472,1.5408,1.5024,1.4894,1.4937,1.5099,1.5153,1.5206,1.5458,1.5522,1.5548,1.5591,1.5601,1.5591,1.5533,1.5357,1.5203,1.5203,1.507,1.497,1.5013,1.5024,1.5024,1.5024,1.5024,1.5024,1.5024,1.5024,1.5024,1.5024,1.5246,1.5429,1.5472,1.5515,1.5522,1.5522,1.558,1.5601,1.5601,1.5601,1.5012,1.3665,1.1795,1.0151,0.8763,0.6873,0.5901,0.5901,0.5901,0.5909,0.591,0.5972,0.6012,1.109,1.123,1.1295,1.1295,1.0876,1.0274,0.9681,0.0,0.0,0.0,0.0,0.7243,0.7243,0.0,0.0,0.0,0.0,0.0,0.0,0.0,0.0,0.0,0.0,0.0,0.0,0.0,0.0,0.0,0.0,1.4191,1.4191,1.4191,1.4191,1.4191,1.4191,1.4191,1.4191,1.4191,1.4191,1.4191,1.4191,1.4191,1.4191,1.4191,1.4191,1.4191,1.4191,0.0,1.4191,1.4191,1.4191,1.4191,1.4191,1.4406,1.4715,1.4862,1.5117,1.5436,1.5558,1.5601,1.5558,1.5347,1.5257,1.5278,1.5382,1.5415,1.5421,1.5569,1.5601,1.5601,1.5601,1.5601,1.5569,1.5436,1.5289,1.5203,1.5203,1.5228,1.5257,1.5257,1.5257,1.5257,1.5257,1.5257,1.5257,1.5257,1.5257,1.5257,1.5257,1.5451,1.5505,1.5271,1.5328,1.5389,1.5389,1.5511,1.5601,1.5601,1.5601,1.4878,1.3276,1.1644,1.0015,0.8337,0.6756,0.5959,0.5959,0.6019,0.608,0.6109,0.6138,0.6198,1.1134,1.1273,1.1295,1.1295,1.08,1.0109,0.9367,0.863,0.0,0.0,0.0,0.7038,0.7087,0.0,0.0,0.0,0.0,0.0,0.0,0.0,0.0,0.0,0.0,0.0,0.0,0.0,0.0,0.0,0.0,0.0,1.4191,1.4191,1.4191,1.4191,1.4191,1.4191,1.4191,1.4191,1.4191,1.4191,1.4191,1.4191,1.4191,1.4191,1.4191,1.4191,1.4191,0.0,0.0,1.4191,1.4191,1.4191,1.4191,1.4449,1.4815,1.4883,1.516,1.5522,1.558,1.5601,1.5601,1.5601,1.5601,1.5601,1.5601,1.5601,1.5601,1.5601,1.5601,1.5601,1.5601,1.5601,1.5548,1.5335,1.5292,1.5292,1.5292,1.5458,1.5601,1.5601,1.5601,1.5601,1.5601,1.5601,1.5601,1.5601,1.5601,1.5601,1.5601,1.5601,1.5451,1.5088,1.5199,1.5292,1.5292,1.5479,1.5601,1.5601,1.5338,1.4456,1.278,1.1232,0.9605,0.7886,0.6665,0.6048,0.6048,0.6149,0.6235,0.6272,0.6292,0.6357,1.1014,1.1155,1.1295,1.1295,1.08,1.0109,0.9367,0.0,0.0,0.0,0.6906,0.6807,0.7048,0.0,0.0,0.0,0.0,0.0,0.0,0.0,0.0,0.0,0.0,0.0,0.0,0.0,0.0,0.0,0.0,0.0,1.4191,1.4191,1.4191,1.4191,1.4191,1.4191,1.4191,1.4191,1.4191,1.4191,1.4191,1.4191,1.4191,1.4191,1.4191,1.4191,1.4191,0.0,0.0,1.4191,1.4191,1.4191,1.4191,1.4339,1.4562,1.4805,1.5038,1.5267,1.5526,1.5601,1.5601,1.5601,1.5601,1.5601,1.5601,1.5601,1.5601,1.5601,1.5601,1.5601,1.5601,1.5601,1.5591,1.5569,1.5569,1.5569,1.5569,1.558,1.5601,1.5601,1.5601,1.5601,1.5601,1.5601,1.5601,1.5601,1.5601,1.5601,1.5601,1.5601,1.558,1.5537,1.5548,1.5569,1.5569,1.5591,1.5601,1.5601,1.451,1.3048,1.1187,0.9852,0.8287,0.6425,0.6257,0.6186,0.6186,0.6194,0.6202,0.621,0.6276,0.6304,1.0874,1.1155,1.1273,1.1144,1.0595,0.9884,0.918,0.0,0.0,0.7167,0.6889,0.6779,0.7055,0.716,0.0,0.0,0.0,0.0,0.0,0.0,0.0,0.0,0.0,0.0,0.0,0.0,0.0,0.0,0.0,0.0,1.4191,1.4191,1.4191,1.4191,1.4191,1.4191,1.4191,1.4191,1.4191,1.4191,1.4191,1.4191,1.4191,1.4191,1.4191,1.4191,1.4191,0.0,0.0,1.4191,1.4191,1.4191,1.4191,1.4317,1.454,1.4794,1.4945,1.5085,1.5461,1.549,1.5389,1.5548,1.5601,1.5601,1.5601,1.5601,1.5601,1.5601,1.5601,1.5601,1.5601,1.5601,1.5601,1.5601,1.5601,1.5601,1.5601,1.5601,1.5601,1.5601,1.5601,1.5601,1.5601,1.5601,1.5601,1.5601,1.5601,1.5601,1.5601,1.5735,1.5836,1.5836,1.5703,1.5601,1.5601,1.5761,1.5836,1.5836,1.4679,1.3122,1.1166,0.9777,0.8166,0.6242,0.6235,0.6264,0.6264,0.6333,0.6378,0.6378,0.6415,0.6415,1.0519,1.0876,1.1069,1.0929,1.0337,0.9647,0.0,0.0,0.734,0.7145,0.6889,0.6779,0.7055,0.7098,0.7221,0.0,0.0,0.0,0.0,0.0,0.0,0.0,0.0,0.0,0.0,0.0,0.0,0.0,0.0,0.0,1.4191,1.4191,1.4191,1.4191,1.4191,1.4191,1.4191,1.4191,1.4191,1.4191,1.4191,1.4191,1.4191,1.4191,1.4191,1.4191,0.0,0.0,0.0,1.4191,1.4191,1.4191,1.4191,1.4299,1.4433,1.4697,1.4826,1.4959,1.5354,1.54,1.5357,1.5548,1.5601,1.5601,1.5601,1.5601,1.5601,1.5601,1.5601,1.5601,1.5601,1.5601,1.5601,1.5601,1.5601,1.5601,1.5601,1.5601,1.5601,1.5601,1.5601,1.5638,1.5703,1.5713,1.5746,1.5795,1.5806,1.5806,1.5806,1.5972,1.6084,1.6084,1.5929,1.5806,1.5806,1.5972,1.6084,1.6084,1.4545,1.2918,1.1338,0.9528,0.7856,0.6324,0.6341,0.6357,0.6357,0.6456,0.6506,0.6506,0.6506,0.6506,0.9864,1.0253,1.0607,1.0597,1.0101,0.948,0.0,0.8121,0.734,0.7145,0.6889,0.6779,0.7055,0.7098,0.7171,0.7376,0.0,0.0,0.0,0.0,0.0,0.0,0.0,0.0,0.0,0.0,0.0,0.0,0.0,0.0,1.4191,1.4191,1.4191,1.4191,1.4191,1.4191,1.4191,1.4191,1.4191,1.4191,1.4191,1.4191,1.4191,1.4191,1.4191,0.0,0.0,0.0,0.0,1.4191,1.4191,1.4191,1.4191,1.4202,1.4223,1.4433,1.4672,1.4937,1.5127,1.5378,1.5601,1.5601,1.5601,1.5601,1.5601,1.5601,1.5601,1.5601,1.5601,1.5601,1.5601,1.5601,1.5601,1.5601,1.5601,1.5601,1.5601,1.5601,1.5601,1.5601,1.5601,1.5681,1.5948,1.6007,1.6052,1.6254,1.6286,1.6286,1.6286,1.6297,1.6297,1.6297,1.6297,1.6286,1.6286,1.6297,1.6297,1.6297,1.3794,1.2036,1.143,0.8768,0.7066,0.6514,0.6502,0.6502,0.6502,0.6506,0.6506,0.6506,0.6506,0.6506,0.9148,0.9559,0.983,0.9516,0.915,0.8721,0.8255,0.7655,0.7182,0.7109,0.6889,0.6779,0.7055,0.7098,0.7282,0.7853,0.0,0.0,0.0,0.0,0.0,0.0,0.0,0.0,0.0,0.0,0.0,0.0,0.0,0.0,1.4191,1.4191,1.4191,1.4191,1.4191,1.4191,1.4191,1.4191,1.4191,1.4191,1.4191,1.4191,1.4191,1.4191,1.4191,0.0,0.0,0.0,0.0,1.4191,1.4191,1.4191,1.4191,1.4191,1.4223,1.4436,1.4468,1.4506,1.5009,1.5178,1.516,1.5494,1.5601,1.5601,1.5601,1.5601,1.5601,1.5601,1.5601,1.5601,1.5601,1.5601,1.5601,1.5601,1.5601,1.5601,1.5601,1.5601,1.5645,1.5836,1.5868,1.5944,1.6177,1.622,1.6226,1.6286,1.6297,1.6297,1.6297,1.6452,1.6565,1.6565,1.6689,1.6641,1.6329,1.6478,1.6565,1.6565,1.4091,1.2328,1.1624,0.8915,0.7143,0.6518,0.6506,0.6506,0.6506,0.6506,0.6506,0.6506,0.6506,0.6506,0.0,0.8908,0.9118,0.8824,0.8565,0.8288,0.7892,0.7498,0.7186,0.712,0.6966,0.6899,0.7066,0.7098,0.7256,0.7713,0.0,0.0,0.0,0.0,0.0,0.0,0.0,0.0,0.0,0.0,0.0,0.0,0.0,0.0,1.4191,1.4191,1.4148,1.4051,1.4148,1.4191,1.4191,1.4191,1.4191,1.4191,1.4191,1.4191,1.4191,1.4191,1.4191,0.0,0.0,0.0,0.0,1.4191,1.4191,1.4191,1.4191,1.4191,1.4226,1.4339,1.4428,1.4514,1.4941,1.5113,1.5203,1.5505,1.5601,1.5601,1.5601,1.5601,1.5601,1.5601,1.5601,1.5601,1.5601,1.5601,1.5601,1.5601,1.5601,1.5638,1.5724,1.5746,1.5821,1.6073,1.6117,1.6192,1.6409,1.6441,1.6474,1.6544,1.6555,1.6555,1.6555,1.6716,1.6802,1.6802,1.6931,1.6883,1.6587,1.6726,1.6802,1.6802,1.4178,1.2332,1.1723,0.8878,0.7054,0.6506,0.6506,0.6506,0.6506,0.6522,0.6538,0.6538,0.6558,0.6575,0.0,0.8231,0.8393,0.8361,0.822,0.8027,0.7781,0.753,0.0,0.7113,0.7077,0.7077,0.7098,0.7098,0.712,0.717,0.0,0.0,0.0,0.0,0.0,0.0,0.0,0.0,0.0,0.0,0.0,0.0,0.0,0.0,1.4169,1.4161,1.404,1.379,1.4019,1.4161,1.4169,1.4191,1.4191,1.4191,1.4191,1.4191,1.4191,1.4191,1.4191,0.0,0.0,0.0,0.0,1.4191,1.4191,1.4191,1.4191,1.4191,1.4191,1.4191,1.4471,1.4873,1.4894,1.5182,1.558,1.5591,1.5601,1.5601,1.5601,1.5601,1.5601,1.5601,1.5601,1.5601,1.5601,1.5601,1.5601,1.5601,1.5612,1.5703,1.5948,1.6002,1.6073,1.6291,1.6329,1.6409,1.6678,1.6721,1.678,1.6969,1.7001,1.7001,1.7001,1.7001,1.7001,1.7001,1.7001,1.7001,1.7001,1.7001,1.6969,1.692,1.4028,1.2101,1.1657,0.8656,0.6836,0.6506,0.651,0.6514,0.6514,0.6575,0.6598,0.6602,0.6671,0.669,0.6785,0.0,0.7339,0.6977,0.697,0.7039,0.0,0.6912,0.0,0.0,0.0,0.0,0.0,0.0,0.0,0.0,0.0,0.0,0.0,0.0,0.0,0.0,0.0,0.0,0.0,0.0,0.0,0.0,0.0,1.4162,1.3911,1.3752,1.3646,1.3569,1.3633,1.3741,1.3898,1.4094,1.4191,1.4191,1.4191,1.4191,1.4191,1.4191,1.4191,0.0,0.0,0.0,1.4191,1.4191,1.4191,1.4191,1.4191,1.4191,1.4191,1.4191,1.4374,1.4615,1.484,1.506,1.5335,1.5522,1.5601,1.5601,1.5601,1.5601,1.5601,1.5601,1.5601,1.5601,1.5601,1.5601,1.5601,1.5601,1.5761,1.5927,1.5996,1.6127,1.6301,1.657,1.6613,1.6672,1.6883,1.6926,1.6953,1.699,1.7001,1.7001,1.7001,1.7001,1.7001,1.7001,1.7001,1.7001,1.7001,1.7001,1.6775,1.6266,1.3767,1.1887,1.0964,0.8407,0.6836,0.6506,0.6555,0.6575,0.6575,0.6651,0.6675,0.6679,0.6699,0.669,0.6138,0.658,0.7033,0.6785,0.6805,0.6878,0.0,0.0,0.0,0.0,0.0,0.0,0.0,0.0,0.0,0.0,0.0,0.0,0.0,0.0,0.0,0.0,0.0,0.0,0.0,0.0,0.0,0.0,0.0,1.4109,1.3687,1.3558,1.3439,1.3321,1.3441,1.3601,1.3801,1.3941,1.4083,1.4191,1.4191,1.4191,1.4191,1.4191,1.4191,0.0,0.0,0.0,1.4191,1.4191,1.4191,1.4191,1.4191,1.4191,1.4191,1.4191,1.4406,1.4694,1.4851,1.5117,1.5415,1.5544,1.5601,1.5601,1.5601,1.5601,1.5601,1.5601,1.5601,1.5601,1.5601,1.5601,1.5623,1.5746,1.5879,1.6056,1.6272,1.6408,1.6538,1.6791,1.6834,1.6877,1.698,1.7001,1.7001,1.7001,1.7001,1.7001,1.7001,1.7001,1.7001,1.7001,1.7001,1.7055,1.7163,1.7173,1.6837,1.6039,1.3505,1.1624,1.0733,0.8179,0.6707,0.655,0.6607,0.6651,0.6651,0.6741,0.6786,0.6786,0.6827,0.683,0.5906,0.6435,0.7077,0.6958,0.7012,0.7108,0.0,0.0,0.0,0.0,0.0,0.0,0.0,0.0,0.0,0.0,0.0,0.0,0.0,0.0,0.0,0.0,0.0,0.0,0.0,0.0,0.0,0.0,0.0,1.4045,1.3465,1.3445,1.3326,1.306,1.3267,1.3493,1.3693,1.3756,1.393,1.4191,1.4191,1.4191,1.4191,1.4191,1.4191,1.4191,0.0,0.0,1.4191,1.4191,1.4191,1.4191,1.4191,1.4191,1.4191,1.4191,1.4506,1.4905,1.498,1.5271,1.5601,1.5601,1.5601,1.5601,1.5601,1.5601,1.5601,1.5601,1.5601,1.5601,1.5601,1.5623,1.5713,1.5948,1.6045,1.6218,1.6602,1.6721,1.6807,1.6969,1.7001,1.7001,1.7001,1.7001,1.7001,1.7001,1.7001,1.7001,1.7001,1.7033,1.7066,1.7066,1.7087,1.7195,1.7427,1.7448,1.7016,1.5987,1.331,1.1266,1.0142,0.78,0.6567,0.6611,0.67,0.6728,0.6728,0.6849,0.6912,0.6912,0.6972,0.7008,0.6245,0.6688,0.6958,0.6325,0.6643,0.7144,0.0,0.0,0.0,0.0,0.0,0.0,0.0,0.0,0.0,0.0,0.0,0.0,0.0,0.0,0.0,0.0,0.0,0.0,0.0,0.0,0.0,0.0,0.0,1.3976,1.3206,1.3159,1.3064,1.2849,1.2893,1.2997,1.3211,1.3607,1.393,1.4191,1.4191,1.4191,1.4191,1.4191,1.4191,1.4191,0.0,1.4191,1.4191,1.4191,1.4191,1.4191,1.4191,1.4191,1.4191,1.4191,1.4506,1.4959,1.5343,1.5537,1.5601,1.5601,1.5601,1.5601,1.5601,1.5601,1.5601,1.5601,1.5601,1.5601,1.5601,1.5782,1.5948,1.5981,1.6305,1.6602,1.6678,1.6834,1.6958,1.7001,1.7001,1.7001,1.7001,1.7001,1.7001,1.7001,1.7001,1.7001,1.7001,1.7201,1.7341,1.7341,1.7496,1.7609,1.7641,1.7652,1.7059,1.5663,1.3407,1.0687,0.7438,0.6892,0.6675,0.6687,0.6808,0.6871,0.6871,0.6943,0.6988,0.6988,0.7,0.7008,0.6237,0.672,0.7134,0.709,0.7281,0.0,0.0,0.0,0.0,0.0,0.0,0.0,0.0,0.0,0.0,0.0,0.0,0.0,0.0,0.0,0.0,0.0,0.0,0.0,0.0,0.0,0.0,0.0,0.0,0.0,1.2993,1.3043,1.3014,1.2807,1.2795,1.2902,1.3104,1.3306,1.3607,1.3984,1.3984,1.4062,1.4191,1.4191,1.4191,1.4191,0.0,1.4191,1.4191,1.4191,1.4191,1.4191,1.4191,1.4191,1.4213,1.4317,1.4589,1.4948,1.5275,1.5479,1.5601,1.5601,1.5601,1.5601,1.5601,1.5601,1.5601,1.5601,1.5601,1.5623,1.5782,1.5916,1.6056,1.6315,1.6537,1.6731,1.6834,1.6926,1.7001,1.7001,1.7001,1.7001,1.7001,1.7001,1.7001,1.7001,1.7001,1.7055,1.7201,1.7319,1.7448,1.755,1.7641,1.776,1.7889,1.7916,1.6701,1.3891,1.2008,0.9705,0.6812,0.677,0.6812,0.6812,0.6898,0.6961,0.6961,0.6988,0.7008,0.7008,0.7008,0.7008,0.6509,0.6973,0.7518,0.0,0.0,0.0,0.0,0.0,0.0,0.0,0.0,0.0,0.0,0.0,0.0,0.0,0.0,0.0,0.0,0.0,0.0,0.0,0.0,0.0,0.0,0.0,0.0,0.0,0.0,0.0,1.2915,1.3074,1.3074,1.2807,1.2795,1.287,1.303,1.3028,1.3265,1.3726,1.3779,1.3909,1.4105,1.4169,1.4191,1.4191,1.4191,1.4191,1.4191,1.4191,1.4191,1.4191,1.4191,1.4191,1.4223,1.4436,1.4672,1.4927,1.5142,1.5378,1.5601,1.5601,1.5601,1.5601,1.5601,1.5601,1.5601,1.5601,1.5659,1.5735,1.5948,1.6035,1.6186,1.6591,1.6731,1.6802,1.6969,1.7001,1.7001,1.7001,1.7001,1.7001,1.7001,1.7001,1.7023,1.7077,1.7087,1.7184,1.7448,1.7524,1.7615,1.777,1.7835,1.7953,1.8153,1.7846,1.6238,1.2922,1.1066,0.9089,0.6857,0.6869,0.692,0.692,0.6972,0.7008,0.7008,0.7008,0.6996,0.6976,0.6996,0.6996,0.7511,0.781,0.8088,0.0,0.0,0.0,0.0,0.0,0.0,0.0,0.0,0.0,0.0,0.0,0.0,0.0,0.0,0.0,0.0,0.0,0.0,0.0,0.0,0.0,0.0,0.0,0.0,0.0,0.0,0.0,1.3123,1.3328,1.3267,1.2807,1.2795,1.2806,1.2828,1.2828,1.3053,1.3515,1.3704,1.3812,1.3844,1.4083,1.4191,1.4191,1.4191,1.4191,1.4191,1.4191,1.4191,1.4191,1.4191,1.4191,1.4223,1.4436,1.4672,1.4927,1.5142,1.5378,1.5601,1.5601,1.5601,1.5601,1.5601,1.5601,1.5601,1.5601,1.5782,1.597,1.5992,1.6149,1.6355,1.6634,1.6845,1.698,1.7001,1.7001,1.7001,1.7001,1.7001,1.7001,1.7001,1.7001,1.7077,1.733,1.7373,1.7448,1.7652,1.7895,1.8063,1.8067,1.8244,1.8355,1.8377,1.713,1.5752,1.4337,1.1809,0.9347,0.7078,0.6996,0.6996,0.6996,0.7004,0.7008,0.7008,0.7008,0.6963,0.6899,0.6968,0.6963,0.7643,0.8172,0.0,0.0,0.0,0.0,0.0,0.0,0.0,0.0,0.0,0.0,0.0,0.0,0.0,0.0,0.0,0.0,0.0,0.0,0.0,0.0,0.0,0.0,0.0,0.0,0.0,0.0,0.0,0.0,0.0,1.3437,1.334,1.3001,1.2868,1.2795,1.2795,1.2795,1.2893,1.3076,1.3265,1.3521,1.3799,1.3909,1.4038,1.4191,1.4191,1.4191,1.4191,1.4191,1.4191,1.4191,1.4191,1.4191,1.4223,1.4436,1.4672,1.4927,1.5142,1.5378,1.5601,1.5601,1.5601,1.5601,1.5601,1.5601,1.5601,1.5601,1.5793,1.6024,1.6155,1.6371,1.6608,1.6834,1.6937,1.7001,1.7001,1.7001,1.7001,1.7001,1.7001,1.7001,1.7001,1.713,1.7287,1.7384,1.7513,1.768,1.7916,1.8035,1.8153,1.8276,1.8344,1.8398,1.8398,1.7044,1.5691,1.4485,1.2595,1.0791,0.917,0.843,0.805,0.805,0.7367,0.7008,0.7008,0.7008,0.6988,0.6955,0.6992,0.6988,0.7965,0.8529,0.9179,0.0,0.0,0.0,0.0,0.0,0.0,0.0,0.0,0.0,0.0,0.0,0.0,0.0,0.0,0.0,0.0,0.0,0.0,0.0,0.0,0.0,0.0,0.0,0.0,0.0,0.0,0.0,0.0,1.3883,1.3618,1.3014,1.2868,1.2795,1.2795,1.2795,1.2795,1.2806,1.2933,1.3243,1.3717,1.3769,1.3941,1.4191,1.4191,1.4191,1.4191,1.4191,1.4191,1.4191,1.4191,1.4191,1.4223,1.4436,1.4672,1.4927,1.5142,1.5378,1.5601,1.5601,1.5601,1.5601,1.5601,1.5601,1.5601,1.5601,1.5843,1.6138,1.6254,1.65,1.6753,1.6947,1.7001,1.7001,1.7001,1.7001,1.7001,1.7001,1.7001,1.7033,1.7109,1.7287,1.7448,1.7599,1.7733,1.7927,1.8158,1.8179,1.8244,1.8387,1.8398,1.8398,1.8398,1.715,1.5957,1.5035,1.3674,1.218,1.0467,0.9657,0.9062,0.8714,0.7923,0.7367,0.7008,0.7367,0.753,0.7504,0.7896,0.7873,0.8629,0.8944,0.0,0.0,0.0,0.0,0.0,0.0,0.0,0.0,0.0,0.0,0.0,0.0,0.0,0.0,0.0,0.0,0.0,0.0,0.0,0.0,0.0,0.0,0.0,0.0,0.0,0.0,0.0,0.0,0.0,1.4699,1.4112,1.2844,1.2795,1.2795,1.2795,1.2795,1.2795,1.2795,1.2795,1.3031,1.3493,1.3717,1.3941,1.4204,1.4191,1.4191,1.4191,1.4191,1.4191,1.4191,1.4191,1.4191,1.4223,1.4422,1.4672,1.4937,1.5127,1.5378,1.5601,1.5601,1.5601,1.5601,1.5601,1.5601,1.5601,1.5601,1.5946,1.6297,1.6297,1.6511,1.6753,1.6947,1.7001,1.7001,1.7001,1.7001,1.7001,1.7001,1.7001,1.7087,1.7351,1.7395,1.7556,1.8024,1.8099,1.8158,1.8366,1.8398,1.8398,1.8398,1.8398,1.8398,1.8398,1.7369,1.6558,1.6214,1.5132,1.3289,1.0539,1.0419,0.9891,0.875,0.8714,0.8159,0.7045,0.8159,0.8681,0.8649,0.9833,0.9756,0.875,0.0,0.0,0.0,0.0,0.0,0.0,0.0,0.0,0.0,0.0,0.0,0.0,0.0,0.0,0.0,0.0,0.0,0.0,0.0,0.0,0.0,0.0,0.0,0.0,0.0,0.0,0.0,0.0,0.0,0.0,1.5008,1.4328,1.305,1.2868,1.2795,1.2795,1.2795,1.2795,1.2795,1.2795,1.2945,1.3235,1.3482,1.3706,1.393,1.4116,1.4191,1.4191,1.4191,1.4191,1.4191,1.4191,1.4191,1.4258,1.4632,1.4826,1.4959,1.5354,1.5522,1.5601,1.5601,1.5601,1.5601,1.5601,1.5601,1.5634,1.5825,1.6091,1.634,1.6532,1.6748,1.6931,1.699,1.7001,1.7001,1.7001,1.7001,1.7001,1.7001,1.7001,1.7087,1.7351,1.7507,1.7723,1.8046,1.8211,1.8323,1.8387,1.8398,1.8398,1.8398,1.8398,1.8334,1.8207,1.7533,1.6712,1.578,1.5076,1.4154,1.2906,1.2083,1.1509,1.1168,1.0323,0.9729,0.9386,0.9729,0.9892,0.9875,1.0233,1.0215,0.924,0.0,0.0,0.0,0.0,0.0,0.0,0.0,0.0,0.0,0.0,0.0,0.0,0.0,0.0,0.0,0.0,0.0,0.0,0.0,0.0,0.0,0.0,0.0,0.0,0.0,0.0,0.0,0.0,0.0,0.0,1.5234,1.4328,1.3135,1.2892,1.2795,1.2795,1.2795,1.2795,1.2795,1.2795,1.2859,1.2987,1.3235,1.3513,1.3809,1.4083,1.4191,1.4191,1.4191,1.4191,1.4191,1.4191,1.4191,1.4258,1.4733,1.4894,1.497,1.5429,1.5601,1.5601,1.5601,1.5601,1.5601,1.5601,1.5601,1.5659,1.5927,1.6144,1.635,1.6634,1.6845,1.7001,1.7001,1.7001,1.7001,1.7001,1.7001,1.7001,1.7001,1.7001,1.7109,1.7453,1.7609,1.7813,1.8158,1.8312,1.8398,1.8398,1.8398,1.8366,1.8297,1.8276,1.819,1.7959,1.7527,1.6762,1.5574,1.5102,1.4536,1.372,1.3034,1.2453,1.1977,1.1246,1.0645,1.0202,1.0731,1.0994,1.1012,1.1536,1.1545,0.0,0.0,0.0,0.0,0.0,0.0,0.0,0.0,0.0,0.0,0.0,0.0,0.0,0.0,0.0,0.0,0.0,0.0,0.0,0.0,0.0,0.0,0.0,0.0,0.0,0.0,0.0,0.0,0.0,0.0,0.0,1.5365,1.422,1.3135,1.2892,1.2795,1.2795,1.2795,1.2795,1.2795,1.2795,1.2795,1.2806,1.3008,1.3362,1.3809,1.4062,1.4169,1.4191,1.4191,1.4191,1.4191,1.4191,1.4191,1.4258,1.4733,1.4894,1.497,1.5429,1.5601,1.5601,1.5601,1.5601,1.5601,1.5601,1.5601,1.567,1.5959,1.6155,1.6377,1.664,1.6866,1.7001,1.7001,1.7001,1.7001,1.7001,1.7001,1.7001,1.7001,1.7001,1.7152,1.762,1.7706,1.7867,1.8334,1.8398,1.8398,1.8398,1.8387,1.8308,1.8121,1.8078,1.7959,1.7695,1.7408,1.675,1.5566,1.5202,1.4548,1.3447,1.3403,1.2887,1.1796,1.1762,1.1262,1.0249,1.1458,1.2068,1.21,1.3326,1.3343,0.0,0.0,0.0,0.0,0.0,0.0,0.0,0.0,0.0,0.0,0.0,0.0,0.0,0.0,0.0,0.0,0.0,0.0,0.0,0.0,0.0,0.0,0.0,0.0,0.0,0.0,0.0,0.0,0.0,0.0,1.5766,1.5199,1.4364,1.3135,1.2892,1.2795,1.2795,1.2795,1.2795,0.0,1.2795,1.2795,1.2806,1.3008,1.3362,1.3799,1.3866,1.4008,1.4191,1.4191,1.4191,1.4191,1.4191,1.4191,1.4258,1.4733,1.4894,1.497,1.5429,1.5601,1.5601,1.5601,1.5601,1.5601,1.5601,1.5601,1.5688,1.6118,1.628,1.6393,1.6818,1.6969,1.7001,1.7001,1.7001,1.7001,1.7001,1.7001,1.7001,1.7001,1.7001,1.7152,1.762,1.7706,1.7867,1.8334,1.8398,1.8398,1.8398,1.8265,1.8153,1.8099,1.7916,1.7701,1.7475,1.7531,1.6992,1.5593,1.5331,1.4683,1.3444,1.3391,1.3282,1.3025,1.3008,1.2933,1.2812,1.3095,1.3322,1.3484,1.3773,1.3771,0.0,0.0,0.0,0.0,0.0,0.0,0.0,0.0,0.0,0.0,0.0,0.0,0.0,0.0,0.0,0.0,0.0,0.0,0.0,0.0,0.0,0.0,0.0,0.0,0.0,0.0,0.0,0.0,0.0,1.7518,1.6193,1.4949,1.398,1.3304,1.2965,1.2795,1.2795,1.2795,1.2795,1.2795,1.2795,1.2795,1.2806,1.3008,1.3308,1.3663,1.3758,1.3952,1.4191,1.4191,1.4191,1.4191,1.4191,1.4191,1.4234,1.4589,1.4783,1.4948,1.5285,1.549,1.5601,1.5601,1.5601,1.5601,1.5601,1.5601,1.5698,1.6167,1.6297,1.6404,1.6883,1.7001,1.7001,1.7001,1.7001,1.7001,1.7001,1.7001,1.7001,1.7001,1.7001,1.7152,1.762,1.7899,1.8108,1.8366,1.8319,1.8254,1.8254,1.805,1.7873,1.7783,1.7636,1.7464,1.7233,1.7303,1.6909,1.5805,1.5338,1.4666,1.3679,1.3394,1.3214,1.3116,1.3116,1.3189,1.3367,1.3448,1.3586,1.3765,1.3863,1.3904,0.0,0.0,0.0,0.0,0.0,0.0,0.0,0.0,0.0,0.0,0.0,0.0,0.0,0.0,0.0,0.0,0.0,0.0,0.0,0.0,0.0,0.0,0.0,0.0,0.0,0.0,0.0,0.0,0.0,1.732,1.6925,1.4985,1.3907,1.3907,1.3316,1.2989,1.2989,1.2856,1.2795,1.2795,1.2795,1.2795,1.2806,1.2976,1.3213,1.3517,1.3674,1.3909,1.4191,1.4191,1.4191,1.4191,1.4191,1.4191,1.4223,1.4436,1.4672,1.4927,1.5142,1.5378,1.5601,1.5601,1.5601,1.5601,1.5601,1.5601,1.5698,1.6167,1.6297,1.6404,1.6883,1.7001,1.7001,1.7001,1.7001,1.7001,1.7001,1.7001,1.7001,1.7001,1.7066,1.727,1.7695,1.8108,1.8387,1.8344,1.8218,1.8078,1.8035,1.7809,1.7593,1.7416,1.7362,1.7244,1.7023,1.7001,1.6694,1.5958,1.5274,1.4581,1.3878,1.3361,1.3043,1.2913,1.2896,1.2994,1.3189,1.3344,1.3514,1.3658,1.3813,1.3904,0.0,0.0,0.0,0.0,0.0,0.0,0.0,0.0,0.0,0.0,0.0,0.0,0.0,0.0,0.0,0.0,0.0,0.0,0.0,0.0,0.0,0.0,0.0,0.0,0.0,0.0,0.0,0.0,1.8519,1.7859,1.6948,1.6018,1.5497,1.5497,1.4364,1.3751,1.3751,1.3123,1.2795,1.2795,1.2795,1.2795,1.2795,1.2828,1.3074,1.3493,1.3538,1.3795,1.4191,1.4191,1.4191,1.4191,1.4191,1.4191,1.4223,1.4436,1.4672,1.4927,1.5142,1.5378,1.5601,1.5601,1.5601,1.5601,1.5601,1.5601,1.5698,1.6167,1.6297,1.6404,1.6883,1.7001,1.7001,1.7001,1.7001,1.7001,1.7001,1.7001,1.7001,1.7001,1.7318,1.7695,1.7992,1.8244,1.8334,1.8175,1.811,1.8013,1.7781,1.7561,1.7427,1.7395,1.7184,1.7044,1.7001,1.7001,1.6597,1.5622,1.516,1.4514,1.3687,1.3285,1.3174,1.3312,1.332,1.3392,1.3536,1.3561,1.3675,1.3863,1.3888,1.3904,0.0,0.0,0.0,0.0,0.0,0.0,0.0,0.0,0.0,0.0,0.0,0.0,0.0,0.0,0.0,0.0,0.0,0.0,0.0,0.0,0.0,0.0,0.0,0.0,0.0,0.0,0.0,0.0,1.8911,1.8253,1.7393,1.6513,1.5888,1.5592,1.4914,1.4303,1.3744,1.3514,1.3219,1.2795,1.2795,1.2795,1.2795,1.2795,1.3065,1.3495,1.3342,1.3633,1.4194,1.404,1.4048,1.4191,1.4191,1.4191,1.4202,1.4296,1.4568,1.4916,1.4995,1.5275,1.5601,1.5601,1.5601,1.5601,1.5601,1.5703,1.5886,1.6215,1.6409,1.6597,1.6915,1.7001,1.7001,1.7001,1.7001,1.7001,1.7001,1.7001,1.7044,1.7184,1.7486,1.7781,1.8046,1.8175,1.819,1.811,1.788,1.7675,1.754,1.7313,1.719,1.719,1.7066,1.7001,1.7001,1.6661,1.624,1.5811,1.4936,1.4285,1.3897,1.3568,1.3424,1.3505,1.3442,1.3465,1.3592,1.3592,1.3698,1.3904,1.3904,1.3904,0.0,0.0,0.0,0.0,0.0,0.0,0.0,0.0,0.0,0.0,0.0,0.0,0.0,0.0,0.0,0.0,0.0,0.0,0.0,0.0,0.0,0.0,0.0,0.0,0.0,0.0,0.0,0.0,1.9432,1.8819,1.821,1.7288,1.6478,1.5793,1.533,1.4636,1.3685,1.3634,1.3341,1.2795,1.2795,1.2795,1.2795,1.2795,1.301,1.3385,1.319,1.3523,1.4169,1.3909,1.3952,1.4191,1.4191,1.4191,1.4191,1.4191,1.4506,1.4894,1.4894,1.5218,1.5601,1.5601,1.5601,1.5601,1.5601,1.5793,1.6045,1.6247,1.6484,1.6753,1.6947,1.7001,1.7001,1.7001,1.7001,1.7001,1.7001,1.7055,1.719,1.7438,1.7604,1.7781,1.8046,1.8046,1.7981,1.7927,1.7621,1.7373,1.7308,1.712,1.7001,1.7001,1.7001,1.692,1.6759,1.6299,1.5864,1.5548,1.4634,1.4066,1.3976,1.3723,1.3616,1.3674,1.3579,1.3571,1.3674,1.3674,1.3756,1.3904,1.3904,1.3904,0.0,0.0,0.0,0.0,0.0,0.0,0.0,0.0,0.0,0.0,0.0,0.0,0.0,0.0,0.0,0.0,0.0,0.0,0.0,0.0,0.0,0.0,0.0,0.0,0.0,0.0,0.0,0.0,2.0008,1.9734,1.951,1.8793,1.7909,1.6854,1.5698,1.4711,1.3884,1.3196,1.2832,1.2795,1.2795,1.2795,1.2795,1.2795,1.2923,1.3125,1.3114,1.3523,1.4169,1.3909,1.3952,1.4191,1.4191,1.4191,1.4191,1.4191,1.4506,1.4894,1.4894,1.5218,1.5601,1.5601,1.5601,1.5601,1.5601,1.5793,1.6045,1.6247,1.6484,1.6753,1.6947,1.7001,1.7001,1.7001,1.7001,1.7001,1.7001,1.7211,1.7448,1.7641,1.7695,1.7781,1.8046,1.7895,1.7669,1.7459,1.7416,1.7308,1.7055,1.7012,1.7001,1.7001,1.7001,1.6742,1.612,1.6023,1.5492,1.4281,1.4131,1.3968,1.3638,1.3619,1.3682,1.3888,1.388,1.388,1.3888,1.3888,1.3896,1.3904,1.3904,1.3904,0.0,0.0,0.0,0.0,0.0,0.0,0.0,0.0,0.0,0.0,0.0,0.0,0.0,0.0,0.0,0.0,0.0,0.0,0.0,0.0,0.0,0.0,0.0,0.0,0.0,0.0,0.0,0.0,0.0,1.9985,1.962,1.9023,1.8373,1.7687,1.6927,1.5912,1.4687,1.3266,1.2631,1.2795,1.2795,1.2795,1.2795,1.2795,1.2913,1.3093,1.2965,1.3299,1.3933,1.3696,1.3836,1.4191,1.4191,1.4191,1.4226,1.435,1.4611,1.4916,1.5049,1.5318,1.5601,1.5601,1.5601,1.5623,1.5804,1.6004,1.6237,1.6489,1.6634,1.6753,1.6947,1.6894,1.6834,1.6969,1.7001,1.7001,1.7001,1.7077,1.7249,1.763,1.7604,1.7572,1.7792,1.7658,1.7475,1.7405,1.7254,1.7109,1.7012,1.7001,1.7001,1.7001,1.6684,1.6384,1.6153,1.5426,1.4776,1.4324,1.3959,1.3731,1.3601,1.3714,1.3821,1.3896,1.3904,1.3904,1.3904,1.3904,1.3904,1.3904,1.3904,1.3904,0.0,0.0,0.0,0.0,0.0,0.0,0.0,0.0,0.0,0.0,0.0,0.0,0.0,0.0,0.0,0.0,0.0,0.0,0.0,0.0,0.0,0.0,0.0,0.0,0.0,0.0,0.0,0.0,0.0,0.0,1.95,1.9046,1.84,1.7489,1.688,1.6089,1.5117,1.3648,1.2991,1.3171,1.2917,1.2795,1.2795,1.2795,1.287,1.2997,1.286,1.3181,1.3777,1.359,1.3773,1.4191,1.4191,1.4191,1.4223,1.4436,1.4672,1.4927,1.5142,1.5378,1.5601,1.5601,1.5601,1.5645,1.5927,1.6134,1.6344,1.6522,1.6634,1.671,1.6754,1.6737,1.6753,1.6947,1.7001,1.7023,1.7109,1.713,1.7227,1.754,1.7486,1.7448,1.7583,1.741,1.7265,1.7265,1.7109,1.7001,1.7001,1.7077,1.713,1.713,1.6784,1.6379,1.6001,1.5131,1.4464,1.4156,1.3797,1.3633,1.369,1.3821,1.3904,1.3904,1.3904,1.3904,1.3904,1.3904,1.3904,1.3904,1.3904,1.3904,0.0,0.0,0.0,0.0,0.0,0.0,0.0,0.0,0.0,0.0,0.0,0.0,0.0,0.0,0.0,0.0,0.0,0.0,0.0,0.0,0.0,0.0,0.0,0.0,0.0,0.0,0.0,0.0,2.0292,1.9973,1.9253,1.8943,1.8002,1.6292,1.5522,1.5129,1.5105,1.4304,1.3896,1.3859,1.3147,1.2795,1.2795,1.2795,1.2795,1.2795,1.2806,1.3181,1.3779,1.3579,1.3773,1.4191,1.4191,1.4191,1.4237,1.4433,1.4672,1.4937,1.5142,1.5378,1.5601,1.5601,1.5601,1.5645,1.5927,1.616,1.6297,1.6307,1.6484,1.6634,1.6377,1.6511,1.6764,1.6947,1.7001,1.7066,1.733,1.7384,1.7384,1.7395,1.7384,1.7384,1.7384,1.7163,1.7001,1.7001,1.7001,1.7001,1.7012,1.7244,1.7395,1.7405,1.7286,1.6746,1.5615,1.5206,1.4612,1.3671,1.3617,1.369,1.3896,1.3904,1.3904,1.3904,1.3904,1.3904,1.3904,1.3904,1.3904,1.3904,1.3904,1.3904,0.8813,0.0,0.0,0.0,0.0,0.0,0.0,0.0,0.0,0.0,0.0,0.0,0.0,0.0,0.0,0.0,0.0,0.0,0.0,0.0,0.0,0.0,0.0,0.0,0.0,0.0,0.0,0.0,1.9996,1.9695,1.95,1.8735,1.7885,1.7021,1.6292,1.5639,1.5117,1.4304,1.3631,1.3098,1.2905,1.2795,1.2795,1.2795,1.2795,1.2806,1.2954,1.3222,1.3579,1.3515,1.3773,1.4191,1.4191,1.4191,1.4258,1.4643,1.484,1.4959,1.5339,1.5548,1.5601,1.5601,1.5601,1.5677,1.6086,1.6258,1.6329,1.6532,1.6511,1.6398,1.6318,1.6614,1.6926,1.699,1.7001,1.7023,1.7087,1.7109,1.7163,1.7362,1.7244,1.7109,1.7109,1.7055,1.7001,1.7001,1.7001,1.7066,1.7265,1.7351,1.7459,1.7604,1.7236,1.6754,1.6196,1.5434,1.4797,1.4274,1.3973,1.3838,1.3896,1.3904,1.3904,1.3904,1.3904,1.3904,1.3904,1.3904,1.3904,1.3904,1.3904,1.3904,0.0,0.0,0.0,0.0,0.0,0.0,0.0,0.0,0.0,0.0,0.0,0.0,0.0,0.0,0.0,0.0,0.0,0.0,0.0,0.0,0.0,0.0,0.0,0.0,0.0,2.0303,2.0303,2.0303,1.9882,1.9355,1.8799,1.8122,1.757,1.7147,1.6821,1.6399,1.5854,1.5196,1.4423,1.3553,1.3344,1.3098,1.2795,1.2795,1.2795,1.2806,1.3007,1.3445,1.3981,1.3732,1.3846,1.4191,1.4191,1.4191,1.4258,1.4733,1.4894,1.497,1.5429,1.5601,1.5601,1.5601,1.5681,1.5832,1.6194,1.6377,1.6489,1.6522,1.636,1.6183,1.6275,1.6581,1.6899,1.698,1.7001,1.7001,1.7001,1.7001,1.7044,1.7195,1.7109,1.7001,1.7001,1.7001,1.7033,1.7141,1.7179,1.7249,1.7486,1.7615,1.7739,1.7846,1.7544,1.7054,1.6366,1.5662,1.4964,1.4296,1.4029,1.3904,1.3904,1.3904,1.3904,1.3904,1.3904,1.3904,1.3904,1.3904,1.3904,1.3904,1.3904,1.3904,0.0,0.0,0.0,0.0,0.0,0.0,1.2699,1.2699,0.0,0.0,0.0,0.0,0.0,0.0,0.0,0.0,0.0,0.0,0.0,0.0,0.0,0.0,0.0,0.0,2.0223,2.0178,2.0172,2.0246,1.9763,1.8924,1.7633,1.7366,1.715,1.6903,1.7091,1.706,1.6778,1.6344,1.5633,1.4653,1.4231,1.3691,1.3062,1.3062,1.3062,1.3061,1.3313,1.3946,1.4784,1.4222,1.4173,1.4474,1.438,1.4339,1.4394,1.4862,1.4979,1.497,1.5429,1.5601,1.5601,1.5601,1.5782,1.6035,1.6237,1.6489,1.6656,1.6409,1.6188,1.6073,1.6291,1.6543,1.6785,1.6958,1.7001,1.7001,1.7001,1.7001,1.7001,1.7001,1.7001,1.7001,1.7001,1.7023,1.712,1.7362,1.7416,1.7513,1.7716,1.7959,1.8099,1.8132,1.8025,1.751,1.6408,1.5931,1.5195,1.41,1.3958,1.3904,1.3904,1.3904,1.3904,1.3904,1.3904,1.3904,1.3904,1.3904,1.3904,1.3904,1.3904,1.3904,1.3004,1.3162,1.326,0.0,0.0,0.0,0.0,1.1356,0.0,0.0,0.0,0.0,0.0,0.0,0.0,0.0,0.0,0.0,0.0,0.0,0.0,0.0,0.0,0.0,1.9779,1.948,1.9463,1.9945,1.918,1.8319,1.7412,1.7117,1.695,1.6903,1.6686,1.6371,1.5952,1.5846,1.554,1.4992,1.4913,1.4795,1.4651,1.4651,1.4651,1.4676,1.5146,1.5469,1.5645,1.5307,1.5584,1.6152,1.5498,1.5244,1.5289,1.5768,1.5502,1.497,1.5429,1.5601,1.5601,1.5601,1.5782,1.6035,1.6237,1.6489,1.6688,1.6634,1.6446,1.6301,1.657,1.678,1.6947,1.699,1.7001,1.7001,1.7001,1.7001,1.7001,1.7001,1.7001,1.7001,1.7001,1.719,1.7341,1.7384,1.754,1.7727,1.7992,1.8067,1.8164,1.8312,1.8324,1.7977,1.715,1.6461,1.57,1.4839,1.4225,1.3904,1.3904,1.3904,1.3904,1.3904,1.3904,1.3904,1.3904,1.3904,1.3904,1.3904,1.3904,1.3904,1.4679,1.4443,1.4258,1.3607,0.0,0.0,0.0,0.0,0.0,0.0,0.0,0.0,0.0,0.0,0.0,0.0,0.0,0.0,0.0,0.0,0.0,0.0,0.0,0.0,1.9425,1.9115,1.8957,1.9096,1.8601,1.7999,1.7291,1.7037,1.6818,1.6668,1.6642,1.6463,1.6044,1.6343,1.6197,1.5605,1.5632,1.5509,1.526,1.5153,1.4878,1.4532,1.5034,1.5266,1.5278,1.4983,1.5578,1.659,1.5338,1.4853,1.491,1.5378,1.5276,1.497,1.5429,1.5601,1.5601,1.5601,1.5853,1.6166,1.6264,1.6398,1.6532,1.6667,1.6511,1.635,1.6634,1.6845,1.7001,1.7001,1.7001,1.7001,1.7001,1.7001,1.7001,1.7001,1.7001,1.7044,1.719,1.7308,1.747,1.7718,1.783,1.7975,1.8211,1.8244,1.8287,1.8387,1.8398,1.81,1.7361,1.6779,1.6028,1.5061,1.4492,1.4118,1.3904,1.3904,1.3904,1.3904,1.3904,1.3904,1.3904,1.3904,1.3904,1.3904,1.3904,1.3904,0.0,0.0,0.0,0.0,0.0,1.2786,0.0,0.0,0.0,0.0,0.0,0.0,0.0,0.0,0.0,0.0,0.0,0.0,0.0,0.0,0.0,0.0,0.0,0.0,0.0,1.8629,1.8392,1.8154,1.789,1.7587,1.7224,1.7005,1.6756,1.6408,1.6657,1.6671,1.6408,1.6991,1.6962,1.6326,1.6437,1.6232,1.5759,1.5605,1.5164,1.458,1.5084,1.5342,1.5366,1.5062,1.5632,1.6551,1.5041,1.4469,1.4557,1.4995,1.5068,1.502,1.5451,1.5601,1.5601,1.5601,1.5924,1.6307,1.6366,1.6377,1.642,1.6645,1.6543,1.6441,1.6683,1.6877,1.7001,1.7001,1.7001,1.7001,1.7001,1.7001,1.7001,1.7001,1.7044,1.7157,1.7362,1.7427,1.7593,1.8041,1.8132,1.8229,1.8377,1.8398,1.8398,1.8398,1.8398,1.8135,1.7467,1.7052,1.6328,1.5186,1.4786,1.4385,1.3922,1.3904,1.3904,1.3904,1.3904,1.3904,1.3904,1.3904,1.3904,1.3904,1.3904,1.3904,0.0,0.0,0.0,0.0,1.576,0.0,0.0,0.0,0.0,0.0,0.0,0.0,0.0,0.0,0.0,0.0,0.0,0.0,0.0,0.0,0.0,0.0,0.0,0.0,0.0,1.7489,1.741,1.7511,1.6874,1.6707,1.7183,1.7005,1.6756,1.6408,1.6437,1.6437,1.6408,1.6929,1.7194,1.7177,1.7407,1.7375,1.708,1.7056,1.6998,1.6944,1.7599,1.7883,1.7864,1.7665,1.7226,1.6617,1.5712,1.5452,1.5644,1.596,1.5676,1.5217,1.549,1.5601,1.5601,1.5601,1.5924,1.634,1.6575,1.6656,1.6656,1.6688,1.6678,1.671,1.6904,1.698,1.7001,1.7001,1.7001,1.7001,1.7001,1.7001,1.7001,1.7001,1.7184,1.7362,1.7384,1.755,1.776,1.8056,1.8254,1.8366,1.8398,1.8398,1.8398,1.8398,1.8398,1.8258,1.7861,1.7467,1.6762,1.5603,1.5159,1.4626,1.394,1.3904,1.3904,1.3904,1.3904,1.3904,1.3904,1.3904,1.3904,1.3904,1.3904,1.3904,0.0,0.0,0.0,0.0,0.0,0.0,0.0,0.0,1.2779,0.0,0.0,0.0,0.0,0.0,0.0,0.0,0.0,0.0,0.0,0.0,0.0,0.0,0.0,0.0,0.0,0.0,0.0,0.0,1.6103,1.6253,1.6929,1.6736,1.6627,1.6697,1.6686,1.6686,1.6686,1.7066,1.7359,1.7527,1.7492,1.7492,1.7527,1.7361,1.7169,1.6976,1.7378,1.7409,1.721,1.7225,1.7028,1.667,1.6326,1.6069,1.594,1.6726,1.6596,1.605,1.6314,1.6065,1.5645,1.5924,1.6054,1.6203,1.658,1.6586,1.65,1.6656,1.6699,1.6753,1.6947,1.7001,1.7001,1.7001,1.7001,1.7001,1.7001,1.7001,1.7044,1.7195,1.7319,1.7481,1.7761,1.7873,1.8013,1.8244,1.8351,1.8398,1.8398,1.8398,1.8398,1.8398,1.8398,1.8346,1.8205,1.7872,1.7246,1.631,1.5283,1.4466,1.3914,1.3904,1.3904,1.3904,1.3904,1.3904,1.3904,1.3904,1.3904,1.3904,1.3904,1.3904,1.8654,0.0,0.0,0.0,0.0,0.0,0.0,0.0,0.0,0.0,0.0,0.0,0.0,0.0,0.0,0.0,0.0,0.0,0.0,0.0,0.0,0.0,0.0,0.0,0.0,0.0,0.0,0.0,0.0,1.5509,1.645,1.6352,1.6422,1.6745,1.6859,1.6903,1.6903,1.7249,1.7469,1.7586,1.7469,1.7525,1.7719,1.7531,1.7323,1.714,1.7386,1.7321,1.7077,1.7304,1.7279,1.7081,1.7331,1.7141,1.6817,1.739,1.7397,1.7071,1.7014,1.639,1.5677,1.6146,1.6166,1.6093,1.6564,1.6565,1.6441,1.6645,1.6742,1.6829,1.6958,1.7001,1.7001,1.7001,1.7001,1.7023,1.7087,1.7109,1.7184,1.7421,1.7545,1.7696,1.8035,1.8099,1.8175,1.8366,1.8398,1.8398,1.8398,1.8398,1.8398,1.8398,1.8398,1.8398,1.8398,1.8188,1.765,1.677,1.5407,1.4457,1.4082,1.3958,1.3904,1.3904,1.3904,1.3904,1.3904,1.3904,1.3904,1.3904,1.3904,1.3904,0.0,0.0,0.0,1.7063,0.0,0.0,0.0,0.0,1.44,0.0,0.0,0.0,0.0,0.0,0.0,0.0,0.0,0.0,0.0,0.0,0.0,0.0,0.0,0.0,0.0,0.0,0.0,0.0,0.0,0.0,1.5655,1.5841,1.6067,1.6408,1.6727,1.6903,1.6903,1.7422,1.7562,1.7314,1.7574,1.7725,1.7808,1.7782,1.796,1.8269,1.859,1.8723,1.8755,1.9075,1.8723,1.8042,1.888,1.9094,1.8782,1.7924,1.7906,1.8202,1.7308,1.639,1.5677,1.6146,1.6166,1.6093,1.6564,1.6688,1.6688,1.6704,1.6834,1.699,1.7001,1.7001,1.7001,1.7001,1.7001,1.7066,1.733,1.7384,1.7448,1.7641,1.7906,1.8078,1.8089,1.8099,1.8175,1.8366,1.8398,1.8398,1.8398,1.8398,1.8398,1.8398,1.8398,1.8398,1.8398,1.8381,1.7907,1.677,1.5611,1.4822,1.4492,1.4118,1.3904,1.3904,1.3904,1.3904,1.3904,1.3904,1.3904,1.3904,1.3904,1.3904,0.0,0.0,2.036,1.8253,0.0,0.0,0.0,0.0,0.0,0.0,0.0,0.0,0.0,0.0,0.0,0.0,0.0,0.0,0.0,0.0,0.0,0.0,0.0,0.0,0.0,0.0,0.0,0.0,1.3359,0.0,0.0,1.5419,1.5935,1.6712,1.6844,1.6994,1.7153,1.734,1.7399,1.729,1.7631,1.7778,1.7811,1.803,1.8321,1.864,1.8758,1.8919,1.9138,1.9241,1.9129,1.8908,1.9427,1.9319,1.8906,1.9209,1.8937,1.8185,1.66,1.5857,1.567,1.5983,1.6056,1.6056,1.6349,1.6554,1.6699,1.6699,1.6845,1.7001,1.7001,1.7001,1.7001,1.7001,1.7001,1.7077,1.7341,1.7395,1.7513,1.7895,1.8035,1.8142,1.8276,1.8297,1.8312,1.8387,1.8398,1.8398,1.8398,1.8398,1.8398,1.8398,1.8398,1.8398,1.8398,1.8205,1.7881,1.7386,1.6252,1.5506,1.5303,1.4619,1.4235,1.4235,1.4235,1.4235,1.4235,1.4235,1.4235,1.4235,1.4235,1.4105,2.0496,2.0744,0.0,1.9061,1.8654,0.0,1.6746,0.0,0.0,0.0,0.0,0.0,0.0,0.0,0.0,0.0,0.0,0.0,0.0,0.0,0.0,0.0,0.0,0.0,0.0,0.0,1.2279,1.2315,1.2547,0.0,0.0,0.0,1.5526,1.6514,1.6657,1.6909,1.7302,1.7302,1.7361,1.7477,1.7709,1.7928,1.8162,1.8379,1.8657,1.8977,1.8977,1.9094,1.9298,1.9298,1.9371,1.9503,1.9721,1.9666,1.9514,1.9777,1.9045,1.7733,1.6511,1.5942,1.5778,1.603,1.6106,1.6155,1.6463,1.6629,1.671,1.6796,1.691,1.7001,1.7001,1.7001,1.7023,1.712,1.7141,1.7244,1.7578,1.7653,1.7761,1.8125,1.8218,1.8244,1.8377,1.8398,1.8398,1.8398,1.8398,1.8398,1.8398,1.8398,1.8398,1.8398,1.8398,1.843,1.8534,1.8272,1.8031,1.7826,1.6812,1.6049,1.5688,1.4858,1.4395,1.4395,1.4395,1.4395,1.4395,1.4395,1.4395,1.4395,1.4395,1.4273]}]]